| time (UTC) | temp C | wind direction | speed KPH | gust KPH | rain 1hr cm | rain 24hr cm | rain mn cm | humidity % | barometer mb |
| 20260506192826 | 19 | 188 | 3.2 | 0.0 | 0.00 | 0.00 | 0.10 | 78 | 1008.7 |
| 20260506192729 | 19 | 190 | 3.2 | 0.0 | 0.00 | 0.00 | 0.10 | 77 | 1008.7 |
| 20260506192628 | 19 | 250 | 4.8 | 0.0 | 0.00 | 0.00 | 0.10 | 77 | 1008.7 |
| 20260506192531 | 19 | 180 | 4.8 | 0.0 | 0.00 | 0.00 | 0.10 | 77 | 1008.7 |
| 20260506192432 | 19 | 188 | 4.8 | 0.0 | 0.00 | 0.00 | 0.10 | 77 | 1008.7 |
| 20260506192358 | 19 | 211 | 4.8 | 0.0 | 0.00 | 0.00 | 0.10 | 77 | 1008.7 |
| 20260506192234 | 19 | 166 | 6.4 | 0.0 | 0.00 | 0.00 | 0.10 | 77 | 1008.7 |
| 20260506192137 | 19 | 161 | 6.4 | 0.0 | 0.00 | 0.00 | 0.10 | 77 | 1008.7 |
| 20260506192035 | 19 | 165 | 8.0 | 0.0 | 0.00 | 0.00 | 0.10 | 77 | 1008.7 |
| 20260506191936 | 19 | 182 | 8.0 | 0.0 | 0.00 | 0.00 | 0.10 | 77 | 1008.7 |
| 20260506191834 | 19 | 230 | 8.0 | 0.0 | 0.00 | 0.00 | 0.10 | 77 | 1008.7 |
| 20260506191734 | 19 | 224 | 9.7 | 0.0 | 0.00 | 0.00 | 0.10 | 77 | 1008.7 |
| 20260506191636 | 19 | 199 | 8.0 | 0.0 | 0.00 | 0.00 | 0.10 | 77 | 1008.7 |
| 20260506191538 | 19 | 178 | 8.0 | 0.0 | 0.00 | 0.00 | 0.10 | 77 | 1008.7 |
| 20260506191438 | 19 | 201 | 9.7 | 0.0 | 0.00 | 0.00 | 0.10 | 77 | 1008.7 |
| 20260506191339 | 19 | 192 | 8.0 | 0.0 | 0.00 | 0.00 | 0.10 | 76 | 1008.8 |
| 20260506191240 | 19 | 247 | 8.0 | 0.0 | 0.00 | 0.00 | 0.10 | 76 | 1008.8 |
| 20260506191201 | 19 | 236 | 8.0 | 0.0 | 0.00 | 0.00 | 0.10 | 76 | 1008.8 |
| 20260506191026 | 19 | 198 | 8.0 | 0.0 | 0.00 | 0.00 | 0.10 | 76 | 1008.8 |
| 20260506190946 | 19 | 219 | 8.0 | 0.0 | 0.00 | 0.00 | 0.10 | 76 | 1008.8 |
| 20260506190843 | 19 | 243 | 8.0 | 0.0 | 0.00 | 0.00 | 0.10 | 76 | 1008.8 |
| 20260506190726 | 19 | 172 | 8.0 | 0.0 | 0.00 | 0.00 | 0.10 | 76 | 1008.8 |
| 20260506190648 | 19 | 239 | 8.0 | 0.0 | 0.00 | 0.00 | 0.10 | 76 | 1008.8 |
| 20260506190529 | 19 | 191 | 9.7 | 0.0 | 0.00 | 0.00 | 0.10 | 76 | 1008.8 |
| 20260506190426 | 19 | 159 | 11.3 | 0.0 | 0.00 | 0.00 | 0.10 | 76 | 1008.8 |
| 20260506190332 | 19 | 190 | 11.3 | 0.0 | 0.00 | 0.00 | 0.10 | 76 | 1008.8 |
| 20260506190230 | 19 | 188 | 11.3 | 0.0 | 0.00 | 0.00 | 0.10 | 76 | 1008.8 |
| 20260506190132 | 19 | 228 | 11.3 | 0.0 | 0.00 | 0.00 | 0.10 | 76 | 1008.8 |
| 20260506190033 | 19 | 178 | 12.9 | 0.0 | 0.00 | 0.00 | 0.10 | 76 | 1008.8 |
| 20260506185933 | 19 | 199 | 12.9 | 0.0 | 0.00 | 0.00 | 0.10 | 76 | 1008.8 |
| 20260506185835 | 19 | 180 | 12.9 | 0.0 | 0.00 | 0.00 | 0.10 | 76 | 1008.7 |
| 20260506185740 | 19 | 190 | 12.9 | 0.0 | 0.00 | 0.00 | 0.10 | 76 | 1008.7 |
| 20260506185705 | 19 | 193 | 12.9 | 0.0 | 0.00 | 0.00 | 0.10 | 76 | 1008.7 |
| 20260506185526 | 19 | 200 | 11.3 | 0.0 | 0.00 | 0.00 | 0.10 | 76 | 1008.7 |
| 20260506185427 | 19 | 228 | 9.7 | 0.0 | 0.00 | 0.00 | 0.10 | 76 | 1008.7 |
| 20260506185349 | 19 | 237 | 9.7 | 0.0 | 0.00 | 0.00 | 0.10 | 76 | 1008.7 |
| 20260506185249 | 19 | 192 | 9.7 | 0.0 | 0.00 | 0.00 | 0.10 | 76 | 1008.7 |
| 20260506185130 | 19 | 190 | 8.0 | 0.0 | 0.00 | 0.00 | 0.10 | 76 | 1008.7 |
| 20260506185032 | 19 | 202 | 8.0 | 0.0 | 0.00 | 0.00 | 0.10 | 76 | 1008.7 |
| 20260506184937 | 19 | 182 | 9.7 | 0.0 | 0.00 | 0.00 | 0.10 | 76 | 1008.7 |
| 20260506184834 | 19 | 170 | 9.7 | 0.0 | 0.00 | 0.00 | 0.10 | 76 | 1008.7 |
| 20260506184736 | 19 | 200 | 11.3 | 0.0 | 0.00 | 0.00 | 0.10 | 76 | 1008.7 |
| 20260506184655 | 19 | 271 | 12.9 | 0.0 | 0.00 | 0.00 | 0.10 | 76 | 1008.7 |
| 20260506184537 | 19 | 265 | 12.9 | 0.0 | 0.00 | 0.00 | 0.10 | 76 | 1008.7 |
| 20260506184433 | 19 | 241 | 12.9 | 0.0 | 0.00 | 0.00 | 0.10 | 76 | 1008.7 |
| 20260506184338 | 19 | 184 | 12.9 | 0.0 | 0.00 | 0.00 | 0.10 | 76 | 1008.8 |
| 20260506184258 | 19 | 242 | 12.9 | 0.0 | 0.00 | 0.00 | 0.10 | 76 | 1008.8 |
| 20260506184143 | 19 | 199 | 12.9 | 0.0 | 0.00 | 0.00 | 0.10 | 76 | 1008.8 |
| 20260506184106 | 19 | 350 | 12.9 | 0.0 | 0.00 | 0.00 | 0.10 | 76 | 1008.8 |
| 20260506183943 | 19 | 196 | 11.3 | 0.0 | 0.00 | 0.00 | 0.10 | 76 | 1008.8 |
| 20260506183822 | 19 | 192 | 9.7 | 0.0 | 0.00 | 0.00 | 0.10 | 76 | 1008.8 |
| 20260506183746 | 19 | 206 | 9.7 | 0.0 | 0.00 | 0.00 | 0.10 | 76 | 1008.8 |
| 20260506183625 | 19 | 221 | 8.0 | 0.0 | 0.00 | 0.00 | 0.10 | 77 | 1008.8 |
| 20260506183531 | 19 | 189 | 6.4 | 0.0 | 0.00 | 0.00 | 0.10 | 77 | 1008.8 |
| 20260506183432 | 19 | 197 | 6.4 | 0.0 | 0.00 | 0.00 | 0.10 | 77 | 1008.8 |
| 20260506183337 | 19 | 182 | 6.4 | 0.0 | 0.00 | 0.00 | 0.10 | 77 | 1008.8 |
| 20260506183235 | 19 | 202 | 6.4 | 0.0 | 0.00 | 0.00 | 0.10 | 77 | 1008.8 |
| 20260506183137 | 19 | 210 | 6.4 | 0.0 | 0.00 | 0.00 | 0.10 | 78 | 1008.8 |
| 20260506183055 | 19 | 199 | 6.4 | 0.0 | 0.00 | 0.00 | 0.10 | 78 | 1008.8 |
| 20260506182934 | 19 | 177 | 6.4 | 0.0 | 0.00 | 0.00 | 0.10 | 78 | 1008.8 |
| 20260506182855 | 19 | 190 | 6.4 | 0.0 | 0.00 | 0.00 | 0.10 | 78 | 1008.9 |
| 20260506182740 | 18 | 243 | 6.4 | 0.0 | 0.00 | 0.00 | 0.10 | 78 | 1008.9 |
| 20260506182638 | 18 | 181 | 8.0 | 0.0 | 0.00 | 0.00 | 0.10 | 78 | 1008.9 |
| 20260506182540 | 18 | 269 | 8.0 | 0.0 | 0.00 | 0.00 | 0.10 | 78 | 1008.9 |
| 20260506182441 | 18 | 198 | 8.0 | 0.0 | 0.00 | 0.00 | 0.10 | 78 | 1008.9 |
| 20260506182343 | 18 | 199 | 8.0 | 0.0 | 0.00 | 0.00 | 0.10 | 78 | 1008.9 |
| 20260506182241 | 18 | 249 | 8.0 | 0.0 | 0.00 | 0.00 | 0.10 | 79 | 1008.9 |
| 20260506182128 | 18 | 175 | 8.0 | 0.0 | 0.00 | 0.00 | 0.10 | 79 | 1008.9 |
| 20260506182029 | 18 | 220 | 8.0 | 0.0 | 0.00 | 0.00 | 0.10 | 79 | 1008.9 |
| 20260506181930 | 18 | 162 | 8.0 | 0.0 | 0.00 | 0.00 | 0.10 | 79 | 1008.9 |
| 20260506181829 | 18 | 217 | 8.0 | 0.0 | 0.00 | 0.00 | 0.10 | 79 | 1008.9 |
| 20260506181729 | 18 | 186 | 8.0 | 0.0 | 0.00 | 0.00 | 0.10 | 79 | 1008.9 |
| 20260506181627 | 18 | 186 | 8.0 | 0.0 | 0.00 | 0.00 | 0.10 | 80 | 1008.9 |
| 20260506181534 | 18 | 261 | 6.4 | 0.0 | 0.00 | 0.00 | 0.10 | 80 | 1008.9 |
| 20260506181430 | 18 | 197 | 6.4 | 0.0 | 0.00 | 0.00 | 0.10 | 80 | 1008.9 |
| 20260506181332 | 18 | 175 | 6.4 | 0.0 | 0.00 | 0.00 | 0.10 | 80 | 1009.2 |
| 20260506181233 | 18 | 229 | 6.4 | 0.0 | 0.00 | 0.00 | 0.10 | 81 | 1009.2 |
| 20260506181135 | 18 | 263 | 6.4 | 0.0 | 0.00 | 0.00 | 0.10 | 81 | 1009.2 |
| 20260506181033 | 18 | 181 | 6.4 | 0.0 | 0.00 | 0.00 | 0.10 | 81 | 1009.2 |
| 20260506180934 | 18 | 167 | 6.4 | 0.0 | 0.00 | 0.00 | 0.10 | 81 | 1009.2 |
| 20260506180835 | 18 | 189 | 6.4 | 0.0 | 0.00 | 0.00 | 0.10 | 81 | 1009.2 |
| 20260506180736 | 18 | 183 | 6.4 | 0.0 | 0.00 | 0.00 | 0.10 | 81 | 1009.2 |
| 20260506180634 | 18 | 192 | 6.4 | 0.0 | 0.00 | 0.00 | 0.10 | 81 | 1009.2 |
| 20260506180534 | 18 | 172 | 8.0 | 0.0 | 0.00 | 0.00 | 0.10 | 81 | 1009.2 |
| 20260506180451 | 18 | 197 | 6.4 | 0.0 | 0.00 | 0.00 | 0.10 | 80 | 1009.2 |
| 20260506180331 | 18 | 207 | 8.0 | 0.0 | 0.00 | 0.00 | 0.10 | 80 | 1009.2 |
| 20260506180228 | 18 | 207 | 9.7 | 0.0 | 0.00 | 0.00 | 0.10 | 80 | 1009.2 |
| 20260506180134 | 18 | 207 | 8.0 | 0.0 | 0.00 | 0.00 | 0.10 | 80 | 1009.2 |
| 20260506180057 | 18 | 159 | 8.0 | 0.0 | 0.00 | 0.00 | 0.10 | 79 | 1009.2 |
| 20260506175940 | 19 | 240 | 8.0 | 0.0 | 0.00 | 0.00 | 0.10 | 79 | 1009.2 |
| 20260506175901 | 19 | 191 | 9.7 | 0.0 | 0.00 | 0.00 | 0.10 | 79 | 1009.2 |
| 20260506175740 | 19 | 311 | 9.7 | 0.0 | 0.00 | 0.00 | 0.10 | 78 | 1009.2 |
| 20260506175638 | 19 | 165 | 9.7 | 0.0 | 0.00 | 0.00 | 0.10 | 78 | 1009.2 |
| 20260506175540 | 19 | 219 | 9.7 | 0.0 | 0.00 | 0.00 | 0.10 | 77 | 1009.2 |
| 20260506175442 | 19 | 132 | 11.3 | 0.0 | 0.00 | 0.00 | 0.10 | 77 | 1009.2 |
| 20260506175324 | 19 | 178 | 9.7 | 0.0 | 0.00 | 0.00 | 0.10 | 76 | 1009.2 |
| 20260506175246 | 19 | 235 | 9.7 | 0.0 | 0.00 | 0.00 | 0.10 | 76 | 1009.2 |
| 20260506175147 | 19 | 207 | 11.3 | 0.0 | 0.00 | 0.00 | 0.10 | 76 | 1009.2 |
| 20260506175044 | 20 | 217 | 11.3 | 0.0 | 0.00 | 0.00 | 0.10 | 76 | 1009.2 |
| 20260506174945 | 20 | 192 | 11.3 | 0.0 | 0.00 | 0.00 | 0.10 | 76 | 1009.2 |
| 20260506174842 | 20 | 183 | 11.3 | 0.0 | 0.00 | 0.00 | 0.10 | 76 | 1009.2 |
| 20260506174727 | 20 | 175 | 11.3 | 0.0 | 0.00 | 0.00 | 0.10 | 77 | 1009.2 |
| 20260506174646 | 20 | 211 | 12.9 | 0.0 | 0.00 | 0.00 | 0.10 | 76 | 1009.2 |
| 20260506174548 | 20 | 195 | 12.9 | 0.0 | 0.00 | 0.00 | 0.10 | 76 | 1009.2 |
| 20260506174425 | 20 | 198 | 12.9 | 0.0 | 0.00 | 0.00 | 0.10 | 76 | 1009.2 |
| 20260506174330 | 20 | 195 | 11.3 | 0.0 | 0.00 | 0.00 | 0.10 | 76 | 1009.1 |
| 20260506174228 | 20 | 213 | 12.9 | 0.0 | 0.00 | 0.00 | 0.10 | 76 | 1009.1 |
| 20260506174129 | 20 | 213 | 12.9 | 0.0 | 0.00 | 0.00 | 0.10 | 76 | 1009.1 |
| 20260506174056 | 20 | 192 | 14.5 | 0.0 | 0.00 | 0.00 | 0.10 | 76 | 1009.1 |
| 20260506173935 | 20 | 163 | 12.9 | 0.0 | 0.00 | 0.00 | 0.10 | 75 | 1009.1 |
| 20260506173833 | 20 | 239 | 12.9 | 0.0 | 0.00 | 0.00 | 0.10 | 76 | 1009.1 |
| 20260506173734 | 20 | 211 | 11.3 | 0.0 | 0.00 | 0.00 | 0.10 | 77 | 1009.1 |
| 20260506173635 | 20 | 211 | 9.7 | 0.0 | 0.00 | 0.00 | 0.10 | 78 | 1009.1 |
| 20260506173559 | 20 | 202 | 9.7 | 0.0 | 0.00 | 0.00 | 0.10 | 78 | 1009.1 |
| 20260506173434 | 20 | 160 | 8.0 | 0.0 | 0.00 | 0.00 | 0.10 | 78 | 1009.1 |
| 20260506173338 | 20 | 201 | 6.4 | 0.0 | 0.00 | 0.00 | 0.10 | 78 | 1009.1 |
| 20260506173236 | 20 | 191 | 6.4 | 0.0 | 0.00 | 0.00 | 0.10 | 77 | 1009.1 |
| 20260506173138 | 20 | 212 | 4.8 | 0.0 | 0.00 | 0.00 | 0.10 | 79 | 1009.1 |
| 20260506173041 | 20 | 214 | 1.6 | 0.0 | 0.00 | 0.00 | 0.10 | 79 | 1009.1 |
| 20260506172943 | 20 | 182 | 1.6 | 0.0 | 0.00 | 0.00 | 0.08 | 81 | 1009.1 |
| 20260506172840 | 20 | 179 | 1.6 | 0.0 | 0.00 | 0.00 | 0.08 | 81 | 1009.0 |
| 20260506172742 | 20 | 174 | 1.6 | 0.0 | 0.00 | 0.00 | 0.08 | 81 | 1009.0 |
| 20260506172644 | 20 | 197 | 0.0 | 0.0 | 0.00 | 0.00 | 0.08 | 82 | 1009.0 |
| 20260506172545 | 20 | 215 | 0.0 | 0.0 | 0.00 | 0.00 | 0.08 | 82 | 1009.0 |
| 20260506172422 | 19 | 134 | 0.0 | 0.0 | 0.00 | 0.00 | 0.08 | 82 | 1009.0 |
| 20260506172346 | 19 | 143 | 0.0 | 0.0 | 0.00 | 0.00 | 0.08 | 82 | 1009.0 |
| 20260506172224 | 19 | 161 | 0.0 | 0.0 | 0.00 | 0.00 | 0.08 | 83 | 1009.0 |
| 20260506172125 | 19 | 106 | 0.0 | 0.0 | 0.00 | 0.00 | 0.08 | 83 | 1009.0 |
| 20260506172030 | 19 | 164 | 0.0 | 0.0 | 0.00 | 0.00 | 0.08 | 83 | 1009.0 |
| 20260506171931 | 19 | 160 | 0.0 | 0.0 | 0.00 | 0.00 | 0.08 | 84 | 1009.0 |
| 20260506171830 | 19 | 170 | 0.0 | 0.0 | 0.00 | 0.00 | 0.08 | 83 | 1009.0 |
| 20260506171734 | 19 | 170 | 0.0 | 0.0 | 0.00 | 0.00 | 0.08 | 83 | 1009.0 |
| 20260506171636 | 19 | 172 | 1.6 | 0.0 | 0.00 | 0.00 | 0.08 | 84 | 1009.0 |
| 20260506171538 | 19 | 209 | 1.6 | 0.0 | 0.00 | 0.00 | 0.08 | 83 | 1009.0 |
| 20260506171438 | 19 | 158 | 1.6 | 0.0 | 0.00 | 0.00 | 0.08 | 83 | 1009.0 |
| 20260506171341 | 19 | 157 | 1.6 | 0.0 | 0.00 | 0.00 | 0.08 | 82 | 1009.3 |
| 20260506171242 | 19 | 159 | 3.2 | 0.0 | 0.00 | 0.00 | 0.08 | 82 | 1009.3 |
| 20260506171144 | 19 | 181 | 3.2 | 0.0 | 0.00 | 0.00 | 0.08 | 83 | 1009.3 |
| 20260506171043 | 19 | 189 | 3.2 | 0.0 | 0.00 | 0.00 | 0.08 | 83 | 1009.3 |
| 20260506170944 | 19 | 155 | 3.2 | 0.0 | 0.00 | 0.00 | 0.08 | 83 | 1009.3 |
| 20260506170827 | 19 | 159 | 3.2 | 0.0 | 0.00 | 0.00 | 0.08 | 83 | 1009.3 |
| 20260506170728 | 19 | 174 | 3.2 | 0.0 | 0.00 | 0.00 | 0.08 | 83 | 1009.3 |
| 20260506170626 | 19 | 171 | 3.2 | 0.0 | 0.00 | 0.00 | 0.08 | 83 | 1009.3 |
| 20260506170530 | 19 | 170 | 3.2 | 0.0 | 0.00 | 0.00 | 0.08 | 83 | 1009.3 |
| 20260506170426 | 19 | 156 | 3.2 | 0.0 | 0.00 | 0.00 | 0.08 | 82 | 1009.3 |
| 20260506170328 | 19 | 168 | 1.6 | 0.0 | 0.00 | 0.00 | 0.08 | 83 | 1009.3 |
| 20260506170228 | 18 | 186 | 1.6 | 0.0 | 0.00 | 0.00 | 0.08 | 83 | 1009.3 |
| 20260506170158 | 18 | 155 | 1.6 | 0.0 | 0.00 | 0.00 | 0.08 | 83 | 1009.3 |
| 20260506170036 | 18 | 159 | 1.6 | 0.0 | 0.00 | 0.00 | 0.08 | 83 | 1009.3 |
| 20260506165936 | 18 | 231 | 1.6 | 0.0 | 0.00 | 0.00 | 0.08 | 83 | 1009.4 |
| 20260506165857 | 18 | 210 | 1.6 | 0.0 | 0.00 | 0.00 | 0.08 | 84 | 1009.9 |
| 20260506165759 | 18 | 170 | 1.6 | 0.0 | 0.00 | 0.00 | 0.08 | 85 | 1009.9 |
| 20260506165639 | 18 | 170 | 1.6 | 0.0 | 0.00 | 0.00 | 0.08 | 84 | 1009.9 |
| 20260506165601 | 18 | 170 | 1.6 | 0.0 | 0.00 | 0.00 | 0.08 | 84 | 1009.9 |
| 20260506165440 | 18 | 165 | 1.6 | 0.0 | 0.00 | 0.00 | 0.08 | 84 | 1009.9 |
| 20260506165326 | 18 | 164 | 1.6 | 0.0 | 0.00 | 0.00 | 0.08 | 84 | 1009.9 |
| 20260506165228 | 18 | 165 | 1.6 | 0.0 | 0.00 | 0.00 | 0.08 | 83 | 1009.9 |
| 20260506165150 | 18 | 168 | 1.6 | 0.0 | 0.00 | 0.00 | 0.08 | 83 | 1009.9 |
| 20260506165026 | 18 | 168 | 1.6 | 0.0 | 0.00 | 0.00 | 0.08 | 82 | 1009.9 |
| 20260506164927 | 18 | 178 | 1.6 | 0.0 | 0.00 | 0.00 | 0.08 | 82 | 1009.9 |
| 20260506164829 | 18 | 169 | 0.0 | 0.0 | 0.00 | 0.00 | 0.08 | 82 | 1009.9 |
| 20260506164730 | 18 | 177 | 0.0 | 0.0 | 0.00 | 0.00 | 0.08 | 83 | 1009.9 |
| 20260506164654 | 18 | 140 | 0.0 | 0.0 | 0.00 | 0.00 | 0.08 | 83 | 1009.9 |
| 20260506164555 | 18 | 140 | 0.0 | 0.0 | 0.00 | 0.00 | 0.08 | 83 | 1009.9 |
| 20260506164430 | 18 | 139 | 0.0 | 0.0 | 0.00 | 0.00 | 0.08 | 83 | 1009.9 |
| 20260506164351 | 18 | 141 | 0.0 | 0.0 | 0.00 | 0.00 | 0.08 | 83 | 1010.4 |
| 20260506164228 | 18 | 141 | 0.0 | 0.0 | 0.00 | 0.00 | 0.08 | 83 | 1010.4 |
| 20260506164129 | 18 | 140 | 0.0 | 0.0 | 0.00 | 0.00 | 0.08 | 83 | 1010.4 |
| 20260506164028 | 18 | 140 | 0.0 | 0.0 | 0.00 | 0.00 | 0.08 | 83 | 1010.4 |
| 20260506163948 | 18 | 139 | 0.0 | 0.0 | 0.00 | 0.00 | 0.08 | 82 | 1010.4 |
| 20260506163853 | 18 | 140 | 0.0 | 0.0 | 0.00 | 0.00 | 0.08 | 82 | 1010.4 |
| 20260506163758 | 18 | 198 | 0.0 | 0.0 | 0.00 | 0.00 | 0.08 | 82 | 1010.4 |
| 20260506163636 | 18 | 197 | 0.0 | 0.0 | 0.00 | 0.00 | 0.05 | 82 | 1010.4 |
| 20260506163538 | 18 | 197 | 0.0 | 0.0 | 0.00 | 0.00 | 0.05 | 82 | 1010.4 |
| 20260506163438 | 18 | 183 | 0.0 | 0.0 | 0.00 | 0.00 | 0.05 | 82 | 1010.4 |
| 20260506163400 | 18 | 183 | 0.0 | 0.0 | 0.00 | 0.00 | 0.05 | 82 | 1010.4 |
| 20260506163241 | 18 | 182 | 0.0 | 0.0 | 0.00 | 0.00 | 0.05 | 82 | 1010.4 |
| 20260506163143 | 18 | 182 | 0.0 | 0.0 | 0.00 | 0.00 | 0.05 | 82 | 1010.4 |
| 20260506163025 | 18 | 190 | 0.0 | 0.0 | 0.00 | 0.00 | 0.05 | 82 | 1010.4 |
| 20260506162946 | 18 | 190 | 0.0 | 0.0 | 0.00 | 0.00 | 0.05 | 82 | 1010.4 |
| 20260506162827 | 18 | 192 | 0.0 | 0.0 | 0.00 | 0.00 | 0.05 | 81 | 1010.5 |
| 20260506162728 | 18 | 168 | 0.0 | 0.0 | 0.00 | 0.00 | 0.05 | 81 | 1010.5 |
| 20260506162627 | 18 | 167 | 0.0 | 0.0 | 0.00 | 0.00 | 0.05 | 81 | 1010.5 |
| 20260506162549 | 18 | 166 | 0.0 | 0.0 | 0.00 | 0.00 | 0.05 | 81 | 1010.5 |
| 20260506162445 | 18 | 182 | 0.0 | 0.0 | 0.00 | 0.00 | 0.05 | 81 | 1010.5 |
| 20260506162346 | 18 | 181 | 0.0 | 0.0 | 0.00 | 0.00 | 0.05 | 81 | 1010.5 |
| 20260506162229 | 18 | 181 | 0.0 | 0.0 | 0.00 | 0.00 | 0.05 | 80 | 1010.5 |
| 20260506162133 | 18 | 180 | 0.0 | 0.0 | 0.00 | 0.00 | 0.05 | 80 | 1010.5 |
| 20260506162034 | 18 | 181 | 1.6 | 0.0 | 0.00 | 0.00 | 0.05 | 80 | 1010.5 |
| 20260506161934 | 18 | 181 | 1.6 | 0.0 | 0.00 | 0.00 | 0.05 | 80 | 1010.5 |
| 20260506161832 | 18 | 182 | 1.6 | 0.0 | 0.00 | 0.00 | 0.05 | 80 | 1010.5 |
| 20260506161735 | 18 | 182 | 1.6 | 0.0 | 0.00 | 0.00 | 0.05 | 79 | 1010.5 |
| 20260506161637 | 18 | 184 | 3.2 | 0.0 | 0.00 | 0.00 | 0.05 | 79 | 1010.5 |
| 20260506161540 | 18 | 187 | 3.2 | 0.0 | 0.00 | 0.00 | 0.05 | 79 | 1010.5 |
| 20260506161437 | 18 | 187 | 3.2 | 0.0 | 0.00 | 0.00 | 0.05 | 79 | 1010.5 |
| 20260506161338 | 18 | 186 | 3.2 | 0.0 | 0.00 | 0.00 | 0.05 | 78 | 1010.9 |
| 20260506161259 | 18 | 186 | 3.2 | 0.0 | 0.00 | 0.00 | 0.03 | 79 | 1010.9 |
| 20260506161159 | 18 | 189 | 3.2 | 0.0 | 0.00 | 0.00 | 0.03 | 78 | 1010.9 |
| 20260506161039 | 18 | 219 | 3.2 | 0.0 | 0.00 | 0.00 | 0.03 | 78 | 1010.9 |
| 20260506161001 | 18 | 162 | 3.2 | 0.0 | 0.00 | 0.00 | 0.03 | 77 | 1010.9 |
| 20260506160841 | 18 | 188 | 3.2 | 0.0 | 0.00 | 0.00 | 0.03 | 77 | 1010.9 |
| 20260506160743 | 18 | 224 | 3.2 | 0.0 | 0.00 | 0.00 | 0.03 | 77 | 1010.9 |
| 20260506160640 | 18 | 177 | 3.2 | 0.0 | 0.00 | 0.00 | 0.03 | 76 | 1010.9 |
| 20260506160553 | 18 | 203 | 3.2 | 0.0 | 0.00 | 0.00 | 0.03 | 76 | 1010.9 |
| 20260506160434 | 18 | 185 | 3.2 | 0.0 | 0.00 | 0.00 | 0.03 | 77 | 1010.9 |
| 20260506160334 | 18 | 207 | 4.8 | 0.0 | 0.00 | 0.00 | 0.03 | 76 | 1010.9 |
| 20260506160235 | 18 | 210 | 4.8 | 0.0 | 0.00 | 0.00 | 0.03 | 76 | 1010.9 |
| 20260506160141 | 19 | 159 | 6.4 | 0.0 | 0.00 | 0.00 | 0.03 | 76 | 1010.9 |
| 20260506160041 | 19 | 159 | 6.4 | 0.0 | 0.00 | 0.00 | 0.03 | 75 | 1010.9 |
| 20260506155940 | 19 | 186 | 8.0 | 0.0 | 0.00 | 0.00 | 0.03 | 76 | 1010.9 |
| 20260506155902 | 19 | 199 | 8.0 | 0.0 | 0.00 | 0.00 | 0.03 | 75 | 1010.6 |
| 20260506155742 | 19 | 176 | 8.0 | 0.0 | 0.00 | 0.00 | 0.03 | 75 | 1010.6 |
| 20260506155644 | 19 | 186 | 9.7 | 0.0 | 0.00 | 0.00 | 0.03 | 74 | 1010.6 |
| 20260506155605 | 19 | 180 | 9.7 | 0.0 | 0.00 | 0.00 | 0.03 | 74 | 1010.6 |
| 20260506155425 | 19 | 188 | 11.3 | 0.0 | 0.00 | 0.00 | 0.03 | 73 | 1010.6 |
| 20260506155328 | 19 | 200 | 11.3 | 0.0 | 0.00 | 0.00 | 0.03 | 73 | 1010.6 |
| 20260506155225 | 19 | 165 | 9.7 | 0.0 | 0.00 | 0.00 | 0.03 | 72 | 1010.6 |
| 20260506155146 | 20 | 217 | 11.3 | 0.0 | 0.00 | 0.00 | 0.03 | 72 | 1010.6 |
| 20260506155044 | 20 | 172 | 9.7 | 0.0 | 0.00 | 0.00 | 0.03 | 72 | 1010.6 |
| 20260506154945 | 20 | 203 | 9.7 | 0.0 | 0.00 | 0.00 | 0.03 | 71 | 1010.6 |
| 20260506154827 | 20 | 176 | 9.7 | 0.0 | 0.00 | 0.00 | 0.03 | 70 | 1010.6 |
| 20260506154748 | 20 | 182 | 9.7 | 0.0 | 0.00 | 0.00 | 0.00 | 70 | 1010.6 |
| 20260506154626 | 20 | 205 | 9.7 | 0.0 | 0.00 | 0.00 | 0.00 | 70 | 1010.6 |
| 20260506154529 | 20 | 223 | 9.7 | 0.0 | 0.00 | 0.00 | 0.00 | 69 | 1010.6 |
| 20260506154425 | 20 | 137 | 9.7 | 0.0 | 0.00 | 0.00 | 0.00 | 69 | 1010.6 |
| 20260506154345 | 20 | 195 | 8.0 | 0.0 | 0.00 | 0.00 | 0.00 | 69 | 1010.5 |
| 20260506154224 | 20 | 197 | 9.7 | 0.0 | 0.00 | 0.00 | 0.00 | 68 | 1010.5 |
| 20260506154130 | 20 | 205 | 8.0 | 0.0 | 0.00 | 0.00 | 0.00 | 67 | 1010.5 |
| 20260506154048 | 21 | 141 | 8.0 | 0.0 | 0.00 | 0.00 | 0.00 | 67 | 1010.5 |
| 20260506153928 | 21 | 181 | 6.4 | 0.0 | 0.00 | 0.00 | 0.00 | 67 | 1010.5 |
| 20260506153826 | 21 | 176 | 6.4 | 0.0 | 0.00 | 0.00 | 0.00 | 66 | 1010.5 |
| 20260506153748 | 21 | 186 | 6.4 | 0.0 | 0.00 | 0.00 | 0.00 | 66 | 1010.5 |
| 20260506153624 | 21 | 170 | 6.4 | 0.0 | 0.00 | 0.00 | 0.00 | 65 | 1010.5 |
| 20260506153546 | 21 | 245 | 4.8 | 0.0 | 0.00 | 0.00 | 0.00 | 65 | 1010.5 |
| 20260506153423 | 21 | 176 | 4.8 | 0.0 | 0.00 | 0.00 | 0.00 | 64 | 1010.5 |
| 20260506153333 | 21 | 203 | 6.4 | 0.0 | 0.00 | 0.00 | 0.00 | 65 | 1010.5 |
| 20260506153231 | 21 | 252 | 6.4 | 0.0 | 0.00 | 0.00 | 0.00 | 65 | 1010.5 |
| 20260506153133 | 21 | 203 | 6.4 | 0.0 | 0.00 | 0.00 | 0.00 | 65 | 1010.5 |
| 20260506153032 | 21 | 217 | 6.4 | 0.0 | 0.00 | 0.00 | 0.00 | 65 | 1010.5 |
| 20260506152932 | 21 | 189 | 6.4 | 0.0 | 0.00 | 0.00 | 0.00 | 65 | 1010.5 |
| 20260506152833 | 21 | 183 | 6.4 | 0.0 | 0.00 | 0.00 | 0.00 | 65 | 1010.7 |
| 20260506152734 | 21 | 163 | 6.4 | 0.0 | 0.00 | 0.00 | 0.00 | 65 | 1010.7 |
| 20260506152636 | 21 | 176 | 6.4 | 0.0 | 0.00 | 0.00 | 0.00 | 65 | 1010.7 |
| 20260506152542 | 21 | 190 | 6.4 | 0.0 | 0.00 | 0.00 | 0.00 | 65 | 1010.7 |
| 20260506152440 | 21 | 211 | 8.0 | 0.0 | 0.00 | 0.00 | 0.00 | 65 | 1010.7 |
| 20260506152341 | 21 | 196 | 8.0 | 0.0 | 0.00 | 0.00 | 0.00 | 65 | 1010.7 |
| 20260506152242 | 21 | 178 | 6.4 | 0.0 | 0.00 | 0.00 | 0.00 | 65 | 1010.7 |
| 20260506152143 | 21 | 199 | 6.4 | 0.0 | 0.00 | 0.00 | 0.00 | 66 | 1010.7 |
| 20260506152025 | 21 | 281 | 6.4 | 0.0 | 0.00 | 0.00 | 0.00 | 66 | 1010.7 |
| 20260506151946 | 21 | 143 | 6.4 | 0.0 | 0.00 | 0.00 | 0.00 | 67 | 1010.7 |
| 20260506151826 | 21 | 211 | 6.4 | 0.0 | 0.00 | 0.00 | 0.00 | 66 | 1010.7 |
| 20260506151729 | 21 | 164 | 6.4 | 0.0 | 0.00 | 0.00 | 0.00 | 66 | 1010.7 |
| 20260506151627 | 21 | 209 | 6.4 | 0.0 | 0.00 | 0.00 | 0.00 | 66 | 1010.7 |
| 20260506151529 | 21 | 186 | 6.4 | 0.0 | 0.00 | 0.00 | 0.00 | 65 | 1010.7 |
| 20260506151425 | 21 | 232 | 6.4 | 0.0 | 0.00 | 0.00 | 0.00 | 65 | 1010.7 |
| 20260506151354 | 21 | 160 | 6.4 | 0.0 | 0.00 | 0.00 | 0.00 | 65 | 1010.7 |
| 20260506151230 | 21 | 143 | 6.4 | 0.0 | 0.00 | 0.00 | 0.00 | 65 | 1010.7 |
| 20260506151132 | 21 | 208 | 6.4 | 0.0 | 0.00 | 0.00 | 0.00 | 65 | 1010.7 |
| 20260506151030 | 21 | 184 | 8.0 | 0.0 | 0.00 | 0.00 | 0.00 | 65 | 1010.7 |
| 20260506150930 | 21 | 186 | 8.0 | 0.0 | 0.00 | 0.00 | 0.00 | 64 | 1010.7 |
| 20260506150849 | 21 | 172 | 8.0 | 0.0 | 0.00 | 0.00 | 0.00 | 64 | 1010.7 |
| 20260506150729 | 21 | 154 | 8.0 | 0.0 | 0.00 | 0.00 | 0.00 | 64 | 1010.7 |
| 20260506150631 | 21 | 52 | 9.7 | 0.0 | 0.00 | 0.00 | 0.00 | 64 | 1010.7 |
| 20260506150554 | 21 | 184 | 9.7 | 0.0 | 0.00 | 0.00 | 0.00 | 64 | 1010.7 |
| 20260506150430 | 21 | 152 | 9.7 | 0.0 | 0.00 | 0.00 | 0.00 | 64 | 1010.7 |
| 20260506150333 | 21 | 185 | 9.7 | 0.0 | 0.00 | 0.00 | 0.00 | 64 | 1010.7 |
| 20260506150234 | 21 | 195 | 9.7 | 0.0 | 0.00 | 0.00 | 0.00 | 64 | 1010.7 |
| 20260506150135 | 21 | 176 | 9.7 | 0.0 | 0.00 | 0.00 | 0.00 | 64 | 1010.7 |
| 20260506150053 | 21 | 182 | 9.7 | 0.0 | 0.00 | 0.00 | 0.00 | 64 | 1010.7 |
| 20260506145952 | 21 | 213 | 9.7 | 0.0 | 0.00 | 0.00 | 0.00 | 64 | 1010.7 |
| 20260506145836 | 21 | 262 | 11.3 | 0.0 | 0.00 | 0.00 | 0.00 | 64 | 1010.8 |
| 20260506145756 | 21 | 199 | 11.3 | 0.0 | 0.00 | 0.00 | 0.00 | 64 | 1010.8 |
| 20260506145633 | 21 | 202 | 9.7 | 0.0 | 0.00 | 0.00 | 0.00 | 64 | 1010.8 |
| 20260506145535 | 21 | 176 | 11.3 | 0.0 | 0.00 | 0.00 | 0.00 | 64 | 1010.8 |
| 20260506145432 | 21 | 208 | 11.3 | 0.0 | 0.00 | 0.00 | 0.00 | 64 | 1010.8 |
| 20260506145337 | 21 | 216 | 11.3 | 0.0 | 0.00 | 0.00 | 0.00 | 64 | 1010.8 |
| 20260506145259 | 21 | 176 | 11.3 | 0.0 | 0.00 | 0.00 | 0.00 | 64 | 1010.8 |
| 20260506145159 | 21 | 333 | 12.9 | 0.0 | 0.00 | 0.00 | 0.00 | 64 | 1010.8 |
| 20260506145025 | 21 | 255 | 12.9 | 0.0 | 0.00 | 0.00 | 0.00 | 64 | 1010.8 |
| 20260506144925 | 21 | 158 | 12.9 | 0.0 | 0.00 | 0.00 | 0.00 | 64 | 1010.8 |
| 20260506144827 | 21 | 242 | 11.3 | 0.0 | 0.00 | 0.00 | 0.00 | 64 | 1010.8 |
| 20260506144727 | 21 | 143 | 12.9 | 0.0 | 0.00 | 0.00 | 0.00 | 64 | 1010.8 |
| 20260506144626 | 21 | 188 | 12.9 | 0.0 | 0.00 | 0.00 | 0.00 | 64 | 1010.8 |
| 20260506144528 | 21 | 272 | 11.3 | 0.0 | 0.00 | 0.00 | 0.00 | 64 | 1010.8 |
| 20260506144424 | 21 | 195 | 9.7 | 0.0 | 0.00 | 0.00 | 0.00 | 64 | 1010.8 |
| 20260506144329 | 21 | 208 | 9.7 | 0.0 | 0.00 | 0.00 | 0.00 | 64 | 1010.8 |
| 20260506144230 | 21 | 178 | 11.3 | 0.0 | 0.00 | 0.00 | 0.00 | 63 | 1010.8 |
| 20260506144131 | 21 | 209 | 11.3 | 0.0 | 0.00 | 0.00 | 0.00 | 64 | 1010.8 |
| 20260506144030 | 21 | 207 | 9.7 | 0.0 | 0.00 | 0.00 | 0.00 | 63 | 1010.8 |
| 20260506143931 | 21 | 195 | 9.7 | 0.0 | 0.00 | 0.00 | 0.00 | 63 | 1010.8 |
| 20260506143833 | 21 | 176 | 9.7 | 0.0 | 0.00 | 0.00 | 0.00 | 63 | 1010.8 |
| 20260506143754 | 21 | 174 | 9.7 | 0.0 | 0.00 | 0.00 | 0.00 | 63 | 1010.8 |
| 20260506143635 | 21 | 253 | 9.7 | 0.0 | 0.00 | 0.00 | 0.00 | 63 | 1010.8 |
| 20260506143537 | 21 | 173 | 9.7 | 0.0 | 0.00 | 0.00 | 0.00 | 63 | 1010.8 |
| 20260506143458 | 21 | 144 | 11.3 | 0.0 | 0.00 | 0.00 | 0.00 | 63 | 1010.8 |
| 20260506143338 | 21 | 163 | 9.7 | 0.0 | 0.00 | 0.00 | 0.00 | 63 | 1010.8 |
| 20260506143236 | 21 | 188 | 9.7 | 0.0 | 0.00 | 0.00 | 0.00 | 63 | 1010.8 |
| 20260506143137 | 21 | 194 | 8.0 | 0.0 | 0.00 | 0.00 | 0.00 | 63 | 1010.8 |
| 20260506143036 | 21 | 189 | 8.0 | 0.0 | 0.00 | 0.00 | 0.00 | 63 | 1010.8 |
| 20260506142940 | 21 | 163 | 8.0 | 0.0 | 0.00 | 0.00 | 0.00 | 63 | 1010.8 |
| 20260506142839 | 21 | 199 | 9.7 | 0.0 | 0.00 | 0.00 | 0.00 | 64 | 1010.6 |
| 20260506142739 | 21 | 190 | 9.7 | 0.0 | 0.00 | 0.00 | 0.00 | 64 | 1010.6 |
| 20260506142638 | 21 | 199 | 9.7 | 0.0 | 0.00 | 0.00 | 0.00 | 64 | 1010.6 |
| 20260506142540 | 21 | 205 | 9.7 | 0.0 | 0.00 | 0.00 | 0.00 | 64 | 1010.6 |
| 20260506142505 | 21 | 208 | 8.0 | 0.0 | 0.00 | 0.00 | 0.00 | 63 | 1010.6 |
| 20260506142328 | 21 | 172 | 8.0 | 0.0 | 0.00 | 0.00 | 0.00 | 63 | 1010.6 |
| 20260506142247 | 21 | 168 | 9.7 | 0.0 | 0.00 | 0.00 | 0.00 | 64 | 1010.6 |
| 20260506142130 | 21 | 151 | 9.7 | 0.0 | 0.00 | 0.00 | 0.00 | 64 | 1010.6 |
| 20260506142032 | 21 | 238 | 9.7 | 0.0 | 0.00 | 0.00 | 0.00 | 63 | 1010.6 |
| 20260506141932 | 21 | 186 | 9.7 | 0.0 | 0.00 | 0.00 | 0.00 | 63 | 1010.6 |
| 20260506141831 | 21 | 186 | 9.7 | 0.0 | 0.00 | 0.00 | 0.00 | 63 | 1010.6 |
| 20260506141732 | 21 | 211 | 9.7 | 0.0 | 0.00 | 0.00 | 0.00 | 63 | 1010.6 |
| 20260506141633 | 21 | 198 | 8.0 | 0.0 | 0.00 | 0.00 | 0.00 | 64 | 1010.6 |
| 20260506141534 | 21 | 203 | 8.0 | 0.0 | 0.00 | 0.00 | 0.00 | 64 | 1010.6 |
| 20260506141452 | 21 | 188 | 9.7 | 0.0 | 0.00 | 0.00 | 0.00 | 64 | 1010.6 |
| 20260506141335 | 21 | 233 | 9.7 | 0.0 | 0.00 | 0.00 | 0.00 | 64 | 1010.6 |
| 20260506141235 | 21 | 237 | 9.7 | 0.0 | 0.00 | 0.00 | 0.00 | 64 | 1010.6 |
| 20260506141137 | 21 | 161 | 9.7 | 0.0 | 0.00 | 0.00 | 0.00 | 64 | 1010.6 |
| 20260506141055 | 21 | 210 | 9.7 | 0.0 | 0.00 | 0.00 | 0.00 | 64 | 1010.6 |
| 20260506140934 | 21 | 167 | 9.7 | 0.0 | 0.00 | 0.00 | 0.00 | 64 | 1010.6 |
| 20260506140835 | 21 | 202 | 9.7 | 0.0 | 0.00 | 0.00 | 0.00 | 64 | 1010.6 |
| 20260506140737 | 21 | 172 | 9.7 | 0.0 | 0.00 | 0.00 | 0.00 | 64 | 1010.6 |
| 20260506140635 | 21 | 249 | 9.7 | 0.0 | 0.00 | 0.00 | 0.00 | 64 | 1010.6 |
| 20260506140537 | 21 | 200 | 9.7 | 0.0 | 0.00 | 0.00 | 0.00 | 64 | 1010.6 |
| 20260506140436 | 21 | 193 | 9.7 | 0.0 | 0.00 | 0.00 | 0.00 | 64 | 1010.6 |
| 20260506140339 | 21 | 178 | 9.7 | 0.0 | 0.00 | 0.00 | 0.00 | 65 | 1010.6 |
| 20260506140240 | 21 | 188 | 9.7 | 0.0 | 0.00 | 0.00 | 0.00 | 65 | 1010.6 |
| 20260506140142 | 21 | 161 | 9.7 | 0.0 | 0.00 | 0.00 | 0.00 | 65 | 1010.6 |
| 20260506140042 | 21 | 188 | 9.7 | 0.0 | 0.00 | 0.00 | 0.00 | 65 | 1010.6 |
| 20260506135942 | 21 | 170 | 11.3 | 0.0 | 0.00 | 0.00 | 0.00 | 65 | 1010.6 |
| 20260506135839 | 21 | 182 | 11.3 | 0.0 | 0.00 | 0.00 | 0.00 | 65 | 1010.7 |
| 20260506135740 | 21 | 197 | 9.7 | 0.0 | 0.00 | 0.00 | 0.00 | 64 | 1010.7 |
| 20260506135701 | 21 | 262 | 9.7 | 0.0 | 0.00 | 0.00 | 0.00 | 65 | 1010.7 |
| 20260506135526 | 21 | 199 | 9.7 | 0.0 | 0.00 | 0.00 | 0.00 | 65 | 1010.7 |
| 20260506135426 | 21 | 142 | 11.3 | 0.0 | 0.00 | 0.00 | 0.00 | 65 | 1010.7 |
| 20260506135327 | 21 | 177 | 11.3 | 0.0 | 0.00 | 0.00 | 0.00 | 65 | 1010.7 |
| 20260506135229 | 21 | 196 | 11.3 | 0.0 | 0.00 | 0.00 | 0.00 | 65 | 1010.7 |
| 20260506135131 | 21 | 219 | 11.3 | 0.0 | 0.00 | 0.00 | 0.00 | 65 | 1010.7 |
| 20260506135027 | 21 | 230 | 11.3 | 0.0 | 0.00 | 0.00 | 0.00 | 65 | 1010.7 |
| 20260506134928 | 21 | 199 | 11.3 | 0.0 | 0.00 | 0.00 | 0.00 | 65 | 1010.7 |
| 20260506134831 | 21 | 213 | 11.3 | 0.0 | 0.00 | 0.00 | 0.00 | 65 | 1010.7 |
| 20260506134753 | 21 | 163 | 11.3 | 0.0 | 0.00 | 0.00 | 0.00 | 65 | 1010.7 |
| 20260506134628 | 21 | 172 | 11.3 | 0.0 | 0.00 | 0.00 | 0.00 | 65 | 1010.7 |
| 20260506134551 | 21 | 178 | 11.3 | 0.0 | 0.00 | 0.00 | 0.00 | 65 | 1010.7 |
| 20260506134427 | 21 | 199 | 11.3 | 0.0 | 0.00 | 0.00 | 0.00 | 65 | 1010.7 |
| 20260506134327 | 21 | 243 | 11.3 | 0.0 | 0.00 | 0.00 | 0.00 | 65 | 1010.8 |
| 20260506134228 | 21 | 183 | 11.3 | 0.0 | 0.00 | 0.00 | 0.00 | 65 | 1010.8 |
| 20260506134149 | 21 | 193 | 11.3 | 0.0 | 0.00 | 0.00 | 0.00 | 65 | 1010.8 |
| 20260506134035 | 21 | 215 | 11.3 | 0.0 | 0.00 | 0.00 | 0.00 | 65 | 1010.8 |
| 20260506133935 | 21 | 186 | 12.9 | 0.0 | 0.00 | 0.00 | 0.00 | 65 | 1010.8 |
| 20260506133854 | 21 | 188 | 12.9 | 0.0 | 0.00 | 0.00 | 0.00 | 65 | 1010.8 |
| 20260506133738 | 21 | 206 | 14.5 | 0.0 | 0.00 | 0.00 | 0.00 | 65 | 1010.8 |
| 20260506133656 | 21 | 147 | 14.5 | 0.0 | 0.00 | 0.00 | 0.00 | 65 | 1010.8 |
| 20260506133538 | 21 | 269 | 12.9 | 0.0 | 0.00 | 0.00 | 0.00 | 65 | 1010.8 |
| 20260506133502 | 21 | 215 | 11.3 | 0.0 | 0.00 | 0.00 | 0.00 | 65 | 1010.8 |
| 20260506133341 | 21 | 235 | 11.3 | 0.0 | 0.00 | 0.00 | 0.00 | 65 | 1010.8 |
| 20260506133225 | 21 | 186 | 9.7 | 0.0 | 0.00 | 0.00 | 0.00 | 65 | 1010.8 |
| 20260506133127 | 21 | 184 | 11.3 | 0.0 | 0.00 | 0.00 | 0.00 | 65 | 1010.8 |
| 20260506133024 | 21 | 234 | 9.7 | 0.0 | 0.00 | 0.00 | 0.00 | 65 | 1010.8 |
| 20260506132926 | 21 | 190 | 9.7 | 0.0 | 0.00 | 0.00 | 0.00 | 65 | 1010.8 |
| 20260506132826 | 21 | 224 | 9.7 | 0.0 | 0.00 | 0.00 | 0.00 | 65 | 1011.0 |
| 20260506132728 | 21 | 184 | 9.7 | 0.0 | 0.00 | 0.00 | 0.00 | 65 | 1011.0 |
| 20260506132631 | 21 | 191 | 9.7 | 0.0 | 0.00 | 0.00 | 0.00 | 65 | 1011.0 |
| 20260506132533 | 21 | 177 | 9.7 | 0.0 | 0.00 | 0.00 | 0.00 | 65 | 1011.0 |
| 20260506132430 | 21 | 166 | 9.7 | 0.0 | 0.00 | 0.00 | 0.00 | 65 | 1011.0 |
| 20260506132331 | 21 | 253 | 11.3 | 0.0 | 0.00 | 0.00 | 0.00 | 65 | 1011.0 |
| 20260506132229 | 21 | 226 | 11.3 | 0.0 | 0.00 | 0.00 | 0.00 | 65 | 1011.0 |
| 20260506132130 | 21 | 199 | 11.3 | 0.0 | 0.00 | 0.00 | 0.00 | 65 | 1011.0 |
| 20260506132031 | 21 | 201 | 9.7 | 0.0 | 0.00 | 0.00 | 0.00 | 65 | 1011.0 |
| 20260506131936 | 21 | 174 | 9.7 | 0.0 | 0.00 | 0.00 | 0.00 | 65 | 1011.0 |
| 20260506131838 | 21 | 213 | 9.7 | 0.0 | 0.00 | 0.00 | 0.00 | 65 | 1011.0 |
| 20260506131800 | 21 | 193 | 9.7 | 0.0 | 0.00 | 0.00 | 0.00 | 66 | 1011.0 |
| 20260506131637 | 21 | 160 | 9.7 | 0.0 | 0.00 | 0.00 | 0.00 | 66 | 1011.0 |
| 20260506131540 | 21 | 170 | 11.3 | 0.0 | 0.00 | 0.00 | 0.00 | 66 | 1011.0 |
| 20260506131436 | 21 | 182 | 11.3 | 0.0 | 0.00 | 0.00 | 0.00 | 65 | 1011.0 |
| 20260506131338 | 21 | 207 | 9.7 | 0.0 | 0.00 | 0.00 | 0.00 | 66 | 1011.0 |
| 20260506131239 | 21 | 205 | 9.7 | 0.0 | 0.00 | 0.00 | 0.00 | 66 | 1011.0 |
| 20260506131141 | 21 | 165 | 9.7 | 0.0 | 0.00 | 0.00 | 0.00 | 66 | 1011.0 |
| 20260506131103 | 21 | 153 | 9.7 | 0.0 | 0.00 | 0.00 | 0.00 | 66 | 1011.0 |
| 20260506130943 | 21 | 147 | 9.7 | 0.0 | 0.00 | 0.00 | 0.00 | 66 | 1011.0 |
| 20260506130842 | 21 | 173 | 9.7 | 0.0 | 0.00 | 0.00 | 0.00 | 66 | 1011.0 |
| 20260506130744 | 21 | 192 | 9.7 | 0.0 | 0.00 | 0.00 | 0.00 | 66 | 1011.0 |
| 20260506130626 | 21 | 140 | 8.0 | 0.0 | 0.00 | 0.00 | 0.00 | 66 | 1011.0 |
| 20260506130528 | 21 | 142 | 8.0 | 0.0 | 0.00 | 0.00 | 0.00 | 66 | 1011.0 |
| 20260506130430 | 20 | 188 | 9.7 | 0.0 | 0.00 | 0.00 | 0.00 | 67 | 1011.0 |
| 20260506130331 | 20 | 26 | 9.7 | 0.0 | 0.00 | 0.00 | 0.00 | 67 | 1011.0 |
| 20260506130229 | 20 | 185 | 9.7 | 0.0 | 0.00 | 0.00 | 0.00 | 67 | 1011.0 |
| 20260506130132 | 20 | 151 | 9.7 | 0.0 | 0.00 | 0.00 | 0.00 | 67 | 1011.0 |
| 20260506130030 | 20 | 167 | 11.3 | 0.0 | 0.00 | 0.00 | 0.00 | 67 | 1011.0 |
| 20260506125939 | 20 | 247 | 9.7 | 0.0 | 0.00 | 0.00 | 0.00 | 67 | 1011.0 |
| 20260506125900 | 20 | 163 | 9.7 | 0.0 | 0.00 | 0.00 | 0.00 | 67 | 1010.9 |
| 20260506125741 | 20 | 167 | 9.7 | 0.0 | 0.00 | 0.00 | 0.00 | 67 | 1010.9 |
| 20260506125639 | 20 | 166 | 9.7 | 0.0 | 0.00 | 0.00 | 0.00 | 67 | 1010.9 |
| 20260506125540 | 20 | 278 | 9.7 | 0.0 | 0.00 | 0.00 | 0.00 | 67 | 1010.9 |
| 20260506125440 | 20 | 188 | 8.0 | 0.0 | 0.00 | 0.00 | 0.00 | 67 | 1010.9 |
| 20260506125342 | 20 | 155 | 8.0 | 0.0 | 0.00 | 0.00 | 0.00 | 67 | 1010.9 |
| 20260506125224 | 20 | 139 | 6.4 | 0.0 | 0.00 | 0.00 | 0.00 | 68 | 1010.9 |
| 20260506125126 | 20 | 186 | 6.4 | 0.0 | 0.00 | 0.00 | 0.00 | 67 | 1010.9 |
| 20260506125028 | 20 | 174 | 6.4 | 0.0 | 0.00 | 0.00 | 0.00 | 68 | 1010.9 |
| 20260506124951 | 20 | 155 | 6.4 | 0.0 | 0.00 | 0.00 | 0.00 | 68 | 1010.9 |
| 20260506124853 | 20 | 164 | 6.4 | 0.0 | 0.00 | 0.00 | 0.00 | 68 | 1010.9 |
| 20260506124733 | 20 | 172 | 8.0 | 0.0 | 0.00 | 0.00 | 0.00 | 68 | 1010.9 |
| 20260506124631 | 20 | 221 | 8.0 | 0.0 | 0.00 | 0.00 | 0.00 | 68 | 1010.9 |
| 20260506124536 | 20 | 165 | 8.0 | 0.0 | 0.00 | 0.00 | 0.00 | 68 | 1010.9 |
| 20260506124433 | 20 | 136 | 8.0 | 0.0 | 0.00 | 0.00 | 0.00 | 68 | 1010.9 |
| 20260506124334 | 20 | 181 | 9.7 | 0.0 | 0.00 | 0.00 | 0.00 | 68 | 1010.8 |
| 20260506124257 | 20 | 215 | 9.7 | 0.0 | 0.00 | 0.00 | 0.00 | 69 | 1010.8 |
| 20260506124140 | 20 | 199 | 9.7 | 0.0 | 0.00 | 0.00 | 0.00 | 69 | 1010.8 |
| 20260506124039 | 20 | 169 | 9.7 | 0.0 | 0.00 | 0.00 | 0.00 | 68 | 1010.8 |
| 20260506123938 | 20 | 136 | 9.7 | 0.0 | 0.00 | 0.00 | 0.00 | 69 | 1010.8 |
| 20260506123824 | 20 | 196 | 9.7 | 0.0 | 0.00 | 0.00 | 0.00 | 69 | 1010.8 |
| 20260506123745 | 20 | 169 | 8.0 | 0.0 | 0.00 | 0.00 | 0.00 | 69 | 1010.8 |
| 20260506123642 | 20 | 217 | 8.0 | 0.0 | 0.00 | 0.00 | 0.00 | 69 | 1010.8 |
| 20260506123544 | 20 | 190 | 8.0 | 0.0 | 0.00 | 0.00 | 0.00 | 69 | 1010.8 |
| 20260506123441 | 20 | 183 | 6.4 | 0.0 | 0.00 | 0.00 | 0.00 | 69 | 1010.8 |
| 20260506123343 | 20 | 182 | 6.4 | 0.0 | 0.00 | 0.00 | 0.00 | 69 | 1010.8 |
| 20260506123244 | 20 | 186 | 6.4 | 0.0 | 0.00 | 0.00 | 0.00 | 70 | 1010.8 |
| 20260506123146 | 20 | 100 | 6.4 | 0.0 | 0.00 | 0.00 | 0.00 | 70 | 1010.8 |
| 20260506123024 | 20 | 182 | 6.4 | 0.0 | 0.00 | 0.00 | 0.00 | 70 | 1010.8 |
| 20260506122928 | 20 | 175 | 8.0 | 0.0 | 0.00 | 0.00 | 0.00 | 70 | 1010.8 |
| 20260506122847 | 20 | 170 | 8.0 | 0.0 | 0.00 | 0.00 | 0.00 | 70 | 1011.0 |
| 20260506122730 | 20 | 211 | 9.7 | 0.0 | 0.00 | 0.00 | 0.00 | 70 | 1011.0 |
| 20260506122631 | 20 | 199 | 9.7 | 0.0 | 0.00 | 0.00 | 0.00 | 70 | 1011.0 |
| 20260506122537 | 19 | 199 | 8.0 | 0.0 | 0.00 | 0.00 | 0.00 | 70 | 1011.0 |
| 20260506122437 | 19 | 193 | 8.0 | 0.0 | 0.00 | 0.00 | 0.00 | 70 | 1011.0 |
| 20260506122337 | 19 | 243 | 8.0 | 0.0 | 0.00 | 0.00 | 0.00 | 70 | 1011.0 |
| 20260506122236 | 19 | 134 | 9.7 | 0.0 | 0.00 | 0.00 | 0.00 | 70 | 1011.0 |
| 20260506122135 | 19 | 197 | 11.3 | 0.0 | 0.00 | 0.00 | 0.00 | 70 | 1011.0 |
| 20260506122035 | 19 | 201 | 9.7 | 0.0 | 0.00 | 0.00 | 0.00 | 70 | 1011.0 |
| 20260506121940 | 19 | 165 | 9.7 | 0.0 | 0.00 | 0.00 | 0.00 | 70 | 1011.0 |
| 20260506121901 | 19 | 159 | 8.0 | 0.0 | 0.00 | 0.00 | 0.00 | 70 | 1011.0 |
| 20260506121742 | 19 | 175 | 8.0 | 0.0 | 0.00 | 0.00 | 0.00 | 70 | 1011.0 |
| 20260506121639 | 19 | 178 | 6.4 | 0.0 | 0.00 | 0.00 | 0.00 | 70 | 1011.0 |
| 20260506121541 | 19 | 190 | 6.4 | 0.0 | 0.00 | 0.00 | 0.00 | 70 | 1011.0 |
| 20260506121502 | 19 | 176 | 6.4 | 0.0 | 0.00 | 0.00 | 0.00 | 70 | 1011.0 |
| 20260506121343 | 19 | 160 | 4.8 | 0.0 | 0.00 | 0.00 | 0.00 | 70 | 1011.0 |
| 20260506121227 | 19 | 228 | 4.8 | 0.0 | 0.00 | 0.00 | 0.00 | 70 | 1011.0 |
| 20260506121128 | 19 | 162 | 4.8 | 0.0 | 0.00 | 0.00 | 0.00 | 70 | 1011.0 |
| 20260506121026 | 19 | 153 | 3.2 | 0.0 | 0.00 | 0.00 | 0.00 | 70 | 1011.0 |
| 20260506120930 | 19 | 259 | 4.8 | 0.0 | 0.00 | 0.00 | 0.00 | 71 | 1011.0 |
| 20260506120828 | 19 | 76 | 4.8 | 0.0 | 0.00 | 0.00 | 0.00 | 70 | 1011.0 |
| 20260506120733 | 19 | 159 | 4.8 | 0.0 | 0.00 | 0.00 | 0.00 | 71 | 1011.0 |
| 20260506120630 | 19 | 175 | 4.8 | 0.0 | 0.00 | 0.00 | 0.00 | 70 | 1011.0 |
| 20260506120536 | 19 | 134 | 6.4 | 0.0 | 0.00 | 0.00 | 0.00 | 70 | 1011.0 |
| 20260506120436 | 19 | 199 | 6.4 | 0.0 | 0.00 | 0.00 | 0.00 | 70 | 1011.0 |
| 20260506120358 | 19 | 132 | 6.4 | 0.0 | 0.00 | 0.00 | 0.00 | 70 | 1011.0 |
| 20260506120239 | 19 | 181 | 6.4 | 0.0 | 0.00 | 0.00 | 0.00 | 70 | 1011.0 |
| 20260506120140 | 19 | 179 | 4.8 | 0.0 | 0.00 | 0.00 | 0.00 | 70 | 1011.0 |
| 20260506115940 | 19 | 149 | 3.2 | 0.0 | 0.00 | 0.00 | 0.00 | 70 | 1011.0 |
| 20260506115825 | 19 | 179 | 3.2 | 0.0 | 0.00 | 0.00 | 0.00 | 71 | 1011.1 |
| 20260506115727 | 19 | 198 | 3.2 | 0.0 | 0.00 | 0.00 | 0.00 | 71 | 1011.1 |
| 20260506115649 | 19 | 111 | 3.2 | 0.0 | 0.00 | 0.00 | 0.00 | 70 | 1011.1 |
| 20260506115550 | 19 | 201 | 3.2 | 0.0 | 0.00 | 0.00 | 0.00 | 70 | 1011.1 |
| 20260506115425 | 19 | 201 | 3.2 | 0.0 | 0.00 | 0.00 | 0.00 | 71 | 1011.1 |
| 20260506115327 | 19 | 129 | 4.8 | 0.0 | 0.00 | 0.00 | 0.00 | 71 | 1011.1 |
| 20260506115226 | 19 | 192 | 4.8 | 0.0 | 0.00 | 0.00 | 0.00 | 71 | 1011.1 |
| 20260506115132 | 19 | 189 | 4.8 | 0.0 | 0.00 | 0.00 | 0.00 | 71 | 1011.1 |
| 20260506115030 | 19 | 184 | 6.4 | 0.0 | 0.00 | 0.00 | 0.00 | 71 | 1011.1 |
| 20260506114931 | 19 | 185 | 6.4 | 0.0 | 0.00 | 0.00 | 0.00 | 71 | 1011.1 |
| 20260506114829 | 19 | 163 | 6.4 | 0.0 | 0.00 | 0.00 | 0.00 | 71 | 1011.1 |
| 20260506114750 | 19 | 156 | 6.4 | 0.0 | 0.00 | 0.00 | 0.00 | 71 | 1011.1 |
| 20260506114646 | 19 | 154 | 6.4 | 0.0 | 0.00 | 0.00 | 0.00 | 71 | 1011.1 |
| 20260506114547 | 19 | 194 | 6.4 | 0.0 | 0.00 | 0.00 | 0.00 | 71 | 1011.1 |
| 20260506114444 | 19 | 164 | 6.4 | 0.0 | 0.00 | 0.00 | 0.00 | 71 | 1011.1 |
| 20260506114328 | 19 | 177 | 4.8 | 0.0 | 0.00 | 0.00 | 0.00 | 71 | 1011.0 |
| 20260506114227 | 19 | 183 | 6.4 | 0.0 | 0.00 | 0.00 | 0.00 | 71 | 1011.0 |
| 20260506114130 | 19 | 195 | 6.4 | 0.0 | 0.00 | 0.00 | 0.00 | 71 | 1011.0 |
| 20260506114031 | 19 | 174 | 6.4 | 0.0 | 0.00 | 0.00 | 0.00 | 71 | 1011.0 |
| 20260506113933 | 19 | 274 | 4.8 | 0.0 | 0.00 | 0.00 | 0.00 | 71 | 1011.0 |
| 20260506113850 | 19 | 184 | 4.8 | 0.0 | 0.00 | 0.00 | 0.00 | 71 | 1011.0 |
| 20260506113731 | 19 | 134 | 4.8 | 0.0 | 0.00 | 0.00 | 0.00 | 71 | 1011.0 |
| 20260506113633 | 19 | 164 | 4.8 | 0.0 | 0.00 | 0.00 | 0.00 | 71 | 1011.0 |
| 20260506113536 | 19 | 201 | 4.8 | 0.0 | 0.00 | 0.00 | 0.00 | 71 | 1011.0 |
| 20260506113435 | 19 | 194 | 4.8 | 0.0 | 0.00 | 0.00 | 0.00 | 71 | 1011.0 |
| 20260506113337 | 19 | 277 | 4.8 | 0.0 | 0.00 | 0.00 | 0.00 | 71 | 1011.0 |
| 20260506113239 | 19 | 199 | 4.8 | 0.0 | 0.00 | 0.00 | 0.00 | 71 | 1011.0 |
| 20260506113203 | 19 | 148 | 4.8 | 0.0 | 0.00 | 0.00 | 0.00 | 71 | 1011.0 |
| 20260506113025 | 19 | 174 | 4.8 | 0.0 | 0.00 | 0.00 | 0.00 | 71 | 1011.0 |
| 20260506112929 | 19 | 271 | 4.8 | 0.0 | 0.00 | 0.00 | 0.00 | 72 | 1011.0 |
| 20260506112847 | 19 | 134 | 4.8 | 0.0 | 0.00 | 0.00 | 0.00 | 72 | 1011.2 |
| 20260506112728 | 19 | 195 | 6.4 | 0.0 | 0.00 | 0.00 | 0.00 | 72 | 1011.2 |
| 20260506112629 | 19 | 155 | 6.4 | 0.0 | 0.00 | 0.00 | 0.00 | 72 | 1011.2 |
| 20260506112531 | 19 | 180 | 6.4 | 0.0 | 0.00 | 0.00 | 0.00 | 72 | 1011.2 |
| 20260506112433 | 19 | 189 | 8.0 | 0.0 | 0.00 | 0.00 | 0.00 | 72 | 1011.2 |
| 20260506112341 | 19 | 194 | 8.0 | 0.0 | 0.00 | 0.00 | 0.00 | 72 | 1011.2 |
| 20260506112239 | 19 | 166 | 8.0 | 0.0 | 0.00 | 0.00 | 0.00 | 72 | 1011.2 |
| 20260506112141 | 19 | 181 | 8.0 | 0.0 | 0.00 | 0.00 | 0.00 | 73 | 1011.2 |
| 20260506112041 | 19 | 179 | 8.0 | 0.0 | 0.00 | 0.00 | 0.00 | 73 | 1011.2 |
| 20260506112001 | 18 | 150 | 8.0 | 0.0 | 0.00 | 0.00 | 0.00 | 73 | 1011.2 |
| 20260506111842 | 18 | 190 | 8.0 | 0.0 | 0.00 | 0.00 | 0.00 | 73 | 1011.2 |
| 20260506111744 | 18 | 188 | 8.0 | 0.0 | 0.00 | 0.00 | 0.00 | 73 | 1011.2 |
| 20260506111646 | 18 | 186 | 8.0 | 0.0 | 0.00 | 0.00 | 0.00 | 73 | 1011.2 |
| 20260506111526 | 18 | 180 | 8.0 | 0.0 | 0.00 | 0.00 | 0.00 | 73 | 1011.2 |
| 20260506111428 | 18 | 172 | 6.4 | 0.0 | 0.00 | 0.00 | 0.00 | 73 | 1011.2 |
| 20260506111330 | 18 | 184 | 6.4 | 0.0 | 0.00 | 0.00 | 0.00 | 74 | 1011.0 |
| 20260506111228 | 18 | 208 | 4.8 | 0.0 | 0.00 | 0.00 | 0.00 | 74 | 1011.0 |
| 20260506111148 | 18 | 197 | 4.8 | 0.0 | 0.00 | 0.00 | 0.00 | 74 | 1011.0 |
| 20260506111027 | 18 | 189 | 4.8 | 0.0 | 0.00 | 0.00 | 0.00 | 74 | 1011.0 |
| 20260506110931 | 18 | 128 | 4.8 | 0.0 | 0.00 | 0.00 | 0.00 | 74 | 1011.0 |
| 20260506110828 | 18 | 193 | 4.8 | 0.0 | 0.00 | 0.00 | 0.00 | 74 | 1011.0 |
| 20260506110729 | 18 | 190 | 4.8 | 0.0 | 0.00 | 0.00 | 0.00 | 74 | 1011.0 |
| 20260506110628 | 18 | 180 | 3.2 | 0.0 | 0.00 | 0.00 | 0.00 | 74 | 1011.0 |
| 20260506110531 | 18 | 161 | 3.2 | 0.0 | 0.00 | 0.00 | 0.00 | 74 | 1011.0 |
| 20260506110431 | 18 | 137 | 3.2 | 0.0 | 0.00 | 0.00 | 0.00 | 74 | 1011.0 |
| 20260506110334 | 18 | 258 | 4.8 | 0.0 | 0.00 | 0.00 | 0.00 | 75 | 1011.0 |
| 20260506110236 | 18 | 155 | 4.8 | 0.0 | 0.00 | 0.00 | 0.00 | 74 | 1011.0 |
| 20260506110137 | 18 | 149 | 4.8 | 0.0 | 0.00 | 0.00 | 0.00 | 74 | 1011.0 |
| 20260506110059 | 18 | 138 | 4.8 | 0.0 | 0.00 | 0.00 | 0.00 | 74 | 1011.0 |
| 20260506105958 | 18 | 156 | 4.8 | 0.0 | 0.00 | 0.00 | 0.00 | 74 | 1011.0 |
| 20260506105903 | 18 | 172 | 4.8 | 0.0 | 0.00 | 0.00 | 0.00 | 74 | 1011.0 |
| 20260506105742 | 18 | 182 | 3.2 | 0.0 | 0.00 | 0.00 | 0.00 | 75 | 1011.0 |
| 20260506105644 | 18 | 130 | 3.2 | 0.0 | 0.00 | 0.00 | 0.00 | 75 | 1011.0 |
| 20260506105548 | 18 | 114 | 4.8 | 0.0 | 0.00 | 0.00 | 0.00 | 75 | 1011.0 |
| 20260506105429 | 18 | 174 | 4.8 | 0.0 | 0.00 | 0.00 | 0.00 | 75 | 1011.0 |
| 20260506105331 | 18 | 74 | 3.2 | 0.0 | 0.00 | 0.00 | 0.00 | 75 | 1011.0 |
| 20260506105229 | 18 | 85 | 3.2 | 0.0 | 0.00 | 0.00 | 0.00 | 75 | 1011.0 |
| 20260506105134 | 18 | 170 | 4.8 | 0.0 | 0.00 | 0.00 | 0.00 | 75 | 1011.0 |
| 20260506105032 | 18 | 254 | 4.8 | 0.0 | 0.00 | 0.00 | 0.00 | 75 | 1011.0 |
| 20260506104932 | 18 | 263 | 4.8 | 0.0 | 0.00 | 0.00 | 0.00 | 75 | 1011.0 |
| 20260506104834 | 18 | 184 | 4.8 | 0.0 | 0.00 | 0.00 | 0.00 | 75 | 1011.0 |
| 20260506104736 | 18 | 172 | 4.8 | 0.0 | 0.00 | 0.00 | 0.00 | 75 | 1011.0 |
| 20260506104657 | 18 | 179 | 6.4 | 0.0 | 0.00 | 0.00 | 0.00 | 75 | 1011.0 |
| 20260506104539 | 18 | 189 | 4.8 | 0.0 | 0.00 | 0.00 | 0.00 | 75 | 1011.0 |
| 20260506104435 | 18 | 162 | 6.4 | 0.0 | 0.00 | 0.00 | 0.00 | 75 | 1011.0 |
| 20260506104336 | 18 | 164 | 6.4 | 0.0 | 0.00 | 0.00 | 0.00 | 76 | 1011.0 |
| 20260506104235 | 18 | 163 | 6.4 | 0.0 | 0.00 | 0.00 | 0.00 | 76 | 1011.0 |
| 20260506104136 | 18 | 162 | 4.8 | 0.0 | 0.00 | 0.00 | 0.00 | 76 | 1011.0 |
| 20260506104039 | 18 | 170 | 4.8 | 0.0 | 0.00 | 0.00 | 0.00 | 76 | 1011.0 |
| 20260506103939 | 18 | 153 | 6.4 | 0.0 | 0.00 | 0.00 | 0.00 | 76 | 1011.0 |
| 20260506103836 | 18 | 178 | 4.8 | 0.0 | 0.00 | 0.00 | 0.00 | 76 | 1011.0 |
| 20260506103737 | 18 | 184 | 4.8 | 0.0 | 0.00 | 0.00 | 0.00 | 76 | 1011.0 |
| 20260506103636 | 18 | 149 | 4.8 | 0.0 | 0.00 | 0.00 | 0.00 | 76 | 1011.0 |
| 20260506103536 | 18 | 149 | 4.8 | 0.0 | 0.00 | 0.00 | 0.00 | 76 | 1011.0 |
| 20260506103440 | 18 | 188 | 4.8 | 0.0 | 0.00 | 0.00 | 0.00 | 76 | 1011.0 |
| 20260506103324 | 18 | 194 | 3.2 | 0.0 | 0.00 | 0.00 | 0.00 | 76 | 1011.0 |
| 20260506103225 | 18 | 186 | 4.8 | 0.0 | 0.00 | 0.00 | 0.00 | 76 | 1011.0 |
| 20260506103127 | 18 | 165 | 4.8 | 0.0 | 0.00 | 0.00 | 0.00 | 76 | 1011.0 |
| 20260506103048 | 18 | 168 | 4.8 | 0.0 | 0.00 | 0.00 | 0.00 | 76 | 1011.0 |
| 20260506102928 | 18 | 200 | 4.8 | 0.0 | 0.00 | 0.00 | 0.00 | 76 | 1011.0 |
| 20260506102847 | 18 | 137 | 4.8 | 0.0 | 0.00 | 0.00 | 0.00 | 76 | 1010.9 |
| 20260506102734 | 18 | 158 | 6.4 | 0.0 | 0.00 | 0.00 | 0.00 | 76 | 1010.9 |
| 20260506102632 | 18 | 185 | 6.4 | 0.0 | 0.00 | 0.00 | 0.00 | 76 | 1010.9 |
| 20260506102535 | 18 | 197 | 4.8 | 0.0 | 0.00 | 0.00 | 0.00 | 76 | 1010.9 |
| 20260506102459 | 18 | 135 | 4.8 | 0.0 | 0.00 | 0.00 | 0.00 | 76 | 1010.9 |
| 20260506102339 | 18 | 168 | 4.8 | 0.0 | 0.00 | 0.00 | 0.00 | 76 | 1010.9 |
| 20260506102221 | 18 | 180 | 4.8 | 0.0 | 0.00 | 0.00 | 0.00 | 76 | 1010.9 |
| 20260506102146 | 18 | 152 | 4.8 | 0.0 | 0.00 | 0.00 | 0.00 | 76 | 1010.9 |
| 20260506102028 | 18 | 177 | 4.8 | 0.0 | 0.00 | 0.00 | 0.00 | 76 | 1010.9 |
| 20260506101931 | 18 | 229 | 4.8 | 0.0 | 0.00 | 0.00 | 0.00 | 76 | 1010.9 |
| 20260506101830 | 18 | 192 | 4.8 | 0.0 | 0.00 | 0.00 | 0.00 | 76 | 1010.9 |
| 20260506101731 | 18 | 166 | 3.2 | 0.0 | 0.00 | 0.00 | 0.00 | 76 | 1010.9 |
| 20260506101631 | 18 | 188 | 3.2 | 0.0 | 0.00 | 0.00 | 0.00 | 76 | 1010.9 |
| 20260506101536 | 18 | 170 | 4.8 | 0.0 | 0.00 | 0.00 | 0.00 | 77 | 1010.9 |
| 20260506101457 | 18 | 176 | 4.8 | 0.0 | 0.00 | 0.00 | 0.00 | 76 | 1010.9 |
| 20260506101342 | 18 | 143 | 4.8 | 0.0 | 0.00 | 0.00 | 0.00 | 77 | 1010.7 |
| 20260506101240 | 18 | 168 | 4.8 | 0.0 | 0.00 | 0.00 | 0.00 | 76 | 1010.7 |
| 20260506101142 | 18 | 197 | 4.8 | 0.0 | 0.00 | 0.00 | 0.00 | 76 | 1010.7 |
| 20260506101043 | 18 | 167 | 6.4 | 0.0 | 0.00 | 0.00 | 0.00 | 76 | 1010.7 |
| 20260506100944 | 18 | 110 | 6.4 | 0.0 | 0.00 | 0.00 | 0.00 | 77 | 1010.7 |
| 20260506100841 | 18 | 141 | 6.4 | 0.0 | 0.00 | 0.00 | 0.00 | 77 | 1010.7 |
| 20260506100747 | 18 | 155 | 6.4 | 0.0 | 0.00 | 0.00 | 0.00 | 77 | 1010.7 |
| 20260506100710 | 18 | 85 | 6.4 | 0.0 | 0.00 | 0.00 | 0.00 | 77 | 1010.7 |
| 20260506100619 | 18 | 156 | 6.4 | 0.0 | 0.00 | 0.00 | 0.00 | 77 | 1010.7 |
| 20260506100501 | 18 | 182 | 6.4 | 0.0 | 0.00 | 0.00 | 0.00 | 76 | 1010.7 |
| 20260506100341 | 18 | 174 | 8.0 | 0.0 | 0.00 | 0.00 | 0.00 | 76 | 1010.7 |
| 20260506100240 | 18 | 155 | 6.4 | 0.0 | 0.00 | 0.00 | 0.00 | 76 | 1010.7 |
| 20260506100140 | 18 | 170 | 8.0 | 0.0 | 0.00 | 0.00 | 0.00 | 77 | 1010.7 |
| 20260506100038 | 18 | 191 | 6.4 | 0.0 | 0.00 | 0.00 | 0.00 | 76 | 1010.7 |
| 20260506095942 | 18 | 187 | 6.4 | 0.0 | 0.00 | 0.00 | 0.00 | 77 | 1010.7 |
| 20260506095825 | 18 | 176 | 6.4 | 0.0 | 0.00 | 0.00 | 0.00 | 77 | 1010.7 |
| 20260506095747 | 18 | 182 | 6.4 | 0.0 | 0.00 | 0.00 | 0.00 | 77 | 1010.7 |
| 20260506095643 | 18 | 170 | 6.4 | 0.0 | 0.00 | 0.00 | 0.00 | 77 | 1010.7 |
| 20260506095545 | 18 | 189 | 4.8 | 0.0 | 0.00 | 0.00 | 0.00 | 77 | 1010.7 |
| 20260506095443 | 18 | 151 | 4.8 | 0.0 | 0.00 | 0.00 | 0.00 | 76 | 1010.7 |
| 20260506095329 | 18 | 167 | 3.2 | 0.0 | 0.00 | 0.00 | 0.00 | 77 | 1010.7 |
| 20260506095230 | 18 | 156 | 4.8 | 0.0 | 0.00 | 0.00 | 0.00 | 77 | 1010.7 |
| 20260506095131 | 18 | 194 | 3.2 | 0.0 | 0.00 | 0.00 | 0.00 | 76 | 1010.7 |
| 20260506095030 | 18 | 164 | 3.2 | 0.0 | 0.00 | 0.00 | 0.00 | 76 | 1010.7 |
| 20260506094929 | 18 | 143 | 3.2 | 0.0 | 0.00 | 0.00 | 0.00 | 76 | 1010.7 |
| 20260506094828 | 18 | 80 | 3.2 | 0.0 | 0.00 | 0.00 | 0.00 | 76 | 1010.7 |
| 20260506094734 | 18 | 168 | 3.2 | 0.0 | 0.00 | 0.00 | 0.00 | 76 | 1010.7 |
| 20260506094658 | 18 | 166 | 3.2 | 0.0 | 0.00 | 0.00 | 0.00 | 76 | 1010.7 |
| 20260506094539 | 18 | 169 | 3.2 | 0.0 | 0.00 | 0.00 | 0.00 | 76 | 1010.7 |
| 20260506094437 | 18 | 146 | 4.8 | 0.0 | 0.00 | 0.00 | 0.00 | 76 | 1010.7 |
| 20260506094338 | 18 | 122 | 4.8 | 0.0 | 0.00 | 0.00 | 0.00 | 76 | 1010.7 |
| 20260506094259 | 18 | 192 | 4.8 | 0.0 | 0.00 | 0.00 | 0.00 | 76 | 1010.7 |
| 20260506094139 | 18 | 159 | 4.8 | 0.0 | 0.00 | 0.00 | 0.00 | 76 | 1010.7 |
| 20260506094101 | 18 | 146 | 4.8 | 0.0 | 0.00 | 0.00 | 0.00 | 76 | 1010.7 |
| 20260506093944 | 18 | 148 | 4.8 | 0.0 | 0.00 | 0.00 | 0.00 | 76 | 1010.7 |
| 20260506093822 | 18 | 147 | 4.8 | 0.0 | 0.00 | 0.00 | 0.00 | 76 | 1010.7 |
| 20260506093747 | 18 | 281 | 4.8 | 0.0 | 0.00 | 0.00 | 0.00 | 76 | 1010.7 |
| 20260506093645 | 18 | 167 | 4.8 | 0.0 | 0.00 | 0.00 | 0.00 | 77 | 1010.7 |
| 20260506093546 | 18 | 190 | 4.8 | 0.0 | 0.00 | 0.00 | 0.00 | 77 | 1010.7 |
| 20260506093424 | 18 | 184 | 3.2 | 0.0 | 0.00 | 0.00 | 0.00 | 77 | 1010.7 |
| 20260506093327 | 18 | 183 | 3.2 | 0.0 | 0.00 | 0.00 | 0.00 | 77 | 1010.7 |
| 20260506093229 | 18 | 174 | 3.2 | 0.0 | 0.00 | 0.00 | 0.00 | 77 | 1010.7 |
| 20260506093132 | 18 | 152 | 3.2 | 0.0 | 0.00 | 0.00 | 0.00 | 77 | 1010.7 |
| 20260506093030 | 18 | 162 | 3.2 | 0.0 | 0.00 | 0.00 | 0.00 | 77 | 1010.7 |
| 20260506092934 | 18 | 237 | 4.8 | 0.0 | 0.00 | 0.00 | 0.00 | 77 | 1010.7 |
| 20260506092838 | 18 | 113 | 6.4 | 0.0 | 0.00 | 0.00 | 0.00 | 77 | 1010.7 |
| 20260506092759 | 18 | 111 | 6.4 | 0.0 | 0.00 | 0.00 | 0.00 | 77 | 1010.7 |
| 20260506092637 | 18 | 134 | 6.4 | 0.0 | 0.00 | 0.00 | 0.00 | 77 | 1010.7 |
| 20260506092545 | 18 | 186 | 6.4 | 0.0 | 0.00 | 0.00 | 0.00 | 77 | 1010.7 |
| 20260506092422 | 18 | 173 | 6.4 | 0.0 | 0.00 | 0.00 | 0.00 | 77 | 1010.7 |
| 20260506092327 | 18 | 174 | 6.4 | 0.0 | 0.00 | 0.00 | 0.00 | 77 | 1010.7 |
| 20260506092225 | 18 | 203 | 6.4 | 0.0 | 0.00 | 0.00 | 0.00 | 77 | 1010.7 |
| 20260506092147 | 18 | 155 | 6.4 | 0.0 | 0.00 | 0.00 | 0.00 | 77 | 1010.7 |
| 20260506092025 | 18 | 172 | 6.4 | 0.0 | 0.00 | 0.00 | 0.00 | 77 | 1010.7 |
| 20260506091930 | 18 | 195 | 4.8 | 0.0 | 0.00 | 0.00 | 0.00 | 77 | 1010.7 |
| 20260506091848 | 18 | 101 | 6.4 | 0.0 | 0.00 | 0.00 | 0.00 | 77 | 1010.7 |
| 20260506091729 | 18 | 167 | 4.8 | 0.0 | 0.00 | 0.00 | 0.00 | 77 | 1010.7 |
| 20260506091631 | 18 | 183 | 4.8 | 0.0 | 0.00 | 0.00 | 0.00 | 77 | 1010.7 |
| 20260506091533 | 18 | 161 | 6.4 | 0.0 | 0.00 | 0.00 | 0.00 | 77 | 1010.7 |
| 20260506091434 | 18 | 181 | 4.8 | 0.0 | 0.00 | 0.00 | 0.00 | 77 | 1010.7 |
| 20260506091355 | 18 | 161 | 4.8 | 0.0 | 0.00 | 0.00 | 0.00 | 77 | 1010.8 |
| 20260506091236 | 18 | 261 | 4.8 | 0.0 | 0.00 | 0.00 | 0.00 | 77 | 1010.8 |
| 20260506091143 | 18 | 227 | 4.8 | 0.0 | 0.00 | 0.00 | 0.00 | 77 | 1010.8 |
| 20260506091044 | 18 | 192 | 4.8 | 0.0 | 0.00 | 0.00 | 0.00 | 77 | 1010.8 |
| 20260506090924 | 18 | 143 | 4.8 | 0.0 | 0.00 | 0.00 | 0.00 | 77 | 1010.8 |
| 20260506090826 | 18 | 184 | 3.2 | 0.0 | 0.00 | 0.00 | 0.00 | 77 | 1010.8 |
| 20260506090727 | 18 | 113 | 4.8 | 0.0 | 0.00 | 0.00 | 0.00 | 77 | 1010.8 |
| 20260506090626 | 18 | 180 | 6.4 | 0.0 | 0.00 | 0.00 | 0.00 | 77 | 1010.8 |
| 20260506090533 | 18 | 142 | 4.8 | 0.0 | 0.00 | 0.00 | 0.00 | 77 | 1010.8 |
| 20260506090430 | 18 | 201 | 4.8 | 0.0 | 0.00 | 0.00 | 0.00 | 77 | 1010.8 |
| 20260506090331 | 18 | 10 | 6.4 | 0.0 | 0.00 | 0.00 | 0.00 | 77 | 1010.8 |
| 20260506090233 | 18 | 230 | 6.4 | 0.0 | 0.00 | 0.00 | 0.00 | 77 | 1010.8 |
| 20260506090135 | 18 | 176 | 4.8 | 0.0 | 0.00 | 0.00 | 0.00 | 77 | 1010.8 |
| 20260506090032 | 18 | 142 | 6.4 | 0.0 | 0.00 | 0.00 | 0.00 | 77 | 1010.8 |
| 20260506085931 | 18 | 176 | 4.8 | 0.0 | 0.00 | 0.00 | 0.00 | 76 | 1010.8 |
| 20260506085856 | 18 | 164 | 4.8 | 0.0 | 0.00 | 0.00 | 0.00 | 76 | 1011.0 |
| 20260506085736 | 18 | 178 | 3.2 | 0.0 | 0.00 | 0.00 | 0.00 | 76 | 1011.0 |
| 20260506085636 | 18 | 173 | 3.2 | 0.0 | 0.00 | 0.00 | 0.00 | 77 | 1011.0 |
| 20260506085538 | 18 | 168 | 3.2 | 0.0 | 0.00 | 0.00 | 0.00 | 76 | 1011.0 |
| 20260506085435 | 18 | 155 | 3.2 | 0.0 | 0.00 | 0.00 | 0.00 | 76 | 1011.0 |
| 20260506085336 | 18 | 181 | 1.6 | 0.0 | 0.00 | 0.00 | 0.00 | 77 | 1011.0 |
| 20260506085254 | 18 | 182 | 1.6 | 0.0 | 0.00 | 0.00 | 0.00 | 76 | 1011.0 |
| 20260506085138 | 18 | 128 | 1.6 | 0.0 | 0.00 | 0.00 | 0.00 | 76 | 1011.0 |
| 20260506085040 | 18 | 179 | 1.6 | 0.0 | 0.00 | 0.00 | 0.00 | 76 | 1011.0 |
| 20260506084940 | 18 | 149 | 1.6 | 0.0 | 0.00 | 0.00 | 0.00 | 76 | 1011.0 |
| 20260506084838 | 18 | 241 | 1.6 | 0.0 | 0.00 | 0.00 | 0.00 | 76 | 1011.0 |
| 20260506084739 | 18 | 175 | 1.6 | 0.0 | 0.00 | 0.00 | 0.00 | 76 | 1011.0 |
| 20260506084641 | 18 | 149 | 3.2 | 0.0 | 0.00 | 0.00 | 0.00 | 76 | 1011.0 |
| 20260506084526 | 18 | 163 | 3.2 | 0.0 | 0.00 | 0.00 | 0.00 | 76 | 1011.0 |
| 20260506084428 | 18 | 163 | 3.2 | 0.0 | 0.00 | 0.00 | 0.00 | 76 | 1011.0 |
| 20260506084329 | 18 | 163 | 3.2 | 0.0 | 0.00 | 0.00 | 0.00 | 76 | 1011.0 |
| 20260506084227 | 18 | 184 | 3.2 | 0.0 | 0.00 | 0.00 | 0.00 | 76 | 1011.0 |
| 20260506084129 | 18 | 171 | 3.2 | 0.0 | 0.00 | 0.00 | 0.00 | 76 | 1011.0 |
| 20260506084047 | 18 | 202 | 4.8 | 0.0 | 0.00 | 0.00 | 0.00 | 76 | 1011.0 |
| 20260506083946 | 18 | 164 | 4.8 | 0.0 | 0.00 | 0.00 | 0.00 | 76 | 1011.0 |
| 20260506083828 | 18 | 290 | 6.4 | 0.0 | 0.00 | 0.00 | 0.00 | 76 | 1011.0 |
| 20260506083732 | 18 | 159 | 6.4 | 0.0 | 0.00 | 0.00 | 0.00 | 76 | 1011.0 |
| 20260506083638 | 18 | 151 | 6.4 | 0.0 | 0.00 | 0.00 | 0.00 | 76 | 1011.0 |
| 20260506083600 | 18 | 148 | 4.8 | 0.0 | 0.00 | 0.00 | 0.00 | 76 | 1011.0 |
| 20260506083441 | 18 | 171 | 4.8 | 0.0 | 0.00 | 0.00 | 0.00 | 76 | 1011.0 |
| 20260506083359 | 18 | 70 | 4.8 | 0.0 | 0.00 | 0.00 | 0.00 | 76 | 1011.0 |
| 20260506083300 | 18 | 147 | 4.8 | 0.0 | 0.00 | 0.00 | 0.00 | 76 | 1011.0 |
| 20260506083140 | 18 | 155 | 4.8 | 0.0 | 0.00 | 0.00 | 0.00 | 76 | 1011.0 |
| 20260506083026 | 18 | 154 | 4.8 | 0.0 | 0.00 | 0.00 | 0.00 | 76 | 1011.0 |
| 20260506082946 | 18 | 183 | 4.8 | 0.0 | 0.00 | 0.00 | 0.00 | 76 | 1011.0 |
| 20260506082825 | 18 | 170 | 3.2 | 0.0 | 0.00 | 0.00 | 0.00 | 76 | 1011.1 |
| 20260506082727 | 18 | 264 | 3.2 | 0.0 | 0.00 | 0.00 | 0.00 | 76 | 1011.1 |
| 20260506082625 | 18 | 155 | 3.2 | 0.0 | 0.00 | 0.00 | 0.00 | 76 | 1011.1 |
| 20260506082547 | 18 | 157 | 3.2 | 0.0 | 0.00 | 0.00 | 0.00 | 76 | 1011.1 |
| 20260506082429 | 18 | 141 | 4.8 | 0.0 | 0.00 | 0.00 | 0.00 | 76 | 1011.1 |
| 20260506082329 | 18 | 163 | 4.8 | 0.0 | 0.00 | 0.00 | 0.00 | 76 | 1011.1 |
| 20260506082250 | 18 | 227 | 4.8 | 0.0 | 0.00 | 0.00 | 0.00 | 76 | 1011.1 |
| 20260506082130 | 18 | 185 | 4.8 | 0.0 | 0.00 | 0.00 | 0.00 | 76 | 1011.1 |
| 20260506082031 | 18 | 172 | 4.8 | 0.0 | 0.00 | 0.00 | 0.00 | 76 | 1011.1 |
| 20260506081932 | 18 | 169 | 4.8 | 0.0 | 0.00 | 0.00 | 0.00 | 75 | 1011.1 |
| 20260506081852 | 18 | 263 | 4.8 | 0.0 | 0.00 | 0.00 | 0.00 | 76 | 1011.1 |
| 20260506081734 | 18 | 157 | 4.8 | 0.0 | 0.00 | 0.00 | 0.00 | 76 | 1011.1 |
| 20260506081636 | 18 | 168 | 4.8 | 0.0 | 0.00 | 0.00 | 0.00 | 76 | 1011.1 |
| 20260506081536 | 18 | 173 | 4.8 | 0.0 | 0.00 | 0.00 | 0.00 | 76 | 1011.1 |
| 20260506081434 | 18 | 184 | 4.8 | 0.0 | 0.00 | 0.00 | 0.00 | 75 | 1011.1 |
| 20260506081338 | 18 | 139 | 4.8 | 0.0 | 0.00 | 0.00 | 0.00 | 75 | 1010.9 |
| 20260506081240 | 18 | 146 | 4.8 | 0.0 | 0.00 | 0.00 | 0.00 | 75 | 1010.9 |
| 20260506081142 | 18 | 196 | 4.8 | 0.0 | 0.00 | 0.00 | 0.00 | 75 | 1010.9 |
| 20260506081029 | 18 | 136 | 4.8 | 0.0 | 0.00 | 0.00 | 0.00 | 75 | 1010.9 |
| 20260506080934 | 18 | 140 | 4.8 | 0.0 | 0.00 | 0.00 | 0.00 | 75 | 1010.9 |
| 20260506080835 | 18 | 140 | 4.8 | 0.0 | 0.00 | 0.00 | 0.00 | 75 | 1010.9 |
| 20260506080737 | 18 | 157 | 4.8 | 0.0 | 0.00 | 0.00 | 0.00 | 75 | 1010.9 |
| 20260506080635 | 18 | 134 | 4.8 | 0.0 | 0.00 | 0.00 | 0.00 | 75 | 1010.9 |
| 20260506080537 | 18 | 174 | 4.8 | 0.0 | 0.00 | 0.00 | 0.00 | 75 | 1010.9 |
| 20260506080444 | 18 | 179 | 4.8 | 0.0 | 0.00 | 0.00 | 0.00 | 75 | 1010.9 |
| 20260506080406 | 18 | 164 | 3.2 | 0.0 | 0.00 | 0.00 | 0.00 | 75 | 1010.9 |
| 20260506080243 | 18 | 193 | 3.2 | 0.0 | 0.00 | 0.00 | 0.00 | 75 | 1010.9 |
| 20260506080146 | 18 | 146 | 3.2 | 0.0 | 0.00 | 0.00 | 0.00 | 75 | 1010.9 |
| 20260506073440 | 19 | 160 | 4.8 | 0.0 | 0.00 | 0.00 | 0.00 | 75 | 1011.0 |
| 20260506073322 | 19 | 164 | 4.8 | 0.0 | 0.00 | 0.00 | 0.00 | 75 | 1011.0 |
| 20260506073247 | 19 | 173 | 6.4 | 0.0 | 0.00 | 0.00 | 0.00 | 74 | 1011.0 |
| 20260506073208 | 19 | 180 | 6.4 | 0.0 | 0.00 | 0.00 | 0.00 | 74 | 1011.0 |
| 20260506073029 | 19 | 178 | 6.4 | 0.0 | 0.00 | 0.00 | 0.00 | 74 | 1011.0 |
| 20260506072950 | 19 | 165 | 6.4 | 0.0 | 0.00 | 0.00 | 0.00 | 74 | 1011.0 |
| 20260506072850 | 19 | 104 | 6.4 | 0.0 | 0.00 | 0.00 | 0.00 | 74 | 1011.0 |
| 20260506072750 | 19 | 132 | 6.4 | 0.0 | 0.00 | 0.00 | 0.00 | 74 | 1011.0 |
| 20260506072630 | 19 | 119 | 6.4 | 0.0 | 0.00 | 0.00 | 0.00 | 74 | 1011.0 |
| 20260506072530 | 19 | 155 | 6.4 | 0.0 | 0.00 | 0.00 | 0.00 | 74 | 1011.0 |
| 20260506072428 | 19 | 192 | 4.8 | 0.0 | 0.00 | 0.00 | 0.00 | 74 | 1011.0 |
| 20260506072329 | 19 | 159 | 6.4 | 0.0 | 0.00 | 0.00 | 0.00 | 74 | 1011.0 |
| 20260506072234 | 19 | 169 | 6.4 | 0.0 | 0.00 | 0.00 | 0.00 | 74 | 1011.0 |
| 20260506072136 | 19 | 180 | 4.8 | 0.0 | 0.00 | 0.00 | 0.00 | 74 | 1011.0 |
| 20260506072034 | 19 | 147 | 4.8 | 0.0 | 0.00 | 0.00 | 0.00 | 74 | 1011.0 |
| 20260506071933 | 19 | 140 | 3.2 | 0.0 | 0.00 | 0.00 | 0.00 | 74 | 1011.0 |
| 20260506071831 | 19 | 178 | 3.2 | 0.0 | 0.00 | 0.00 | 0.00 | 74 | 1011.0 |
| 20260506071733 | 19 | 155 | 3.2 | 0.0 | 0.00 | 0.00 | 0.00 | 74 | 1011.0 |
| 20260506071637 | 19 | 226 | 3.2 | 0.0 | 0.00 | 0.00 | 0.00 | 74 | 1011.0 |
| 20260506071539 | 19 | 154 | 3.2 | 0.0 | 0.00 | 0.00 | 0.00 | 74 | 1011.0 |
| 20260506071438 | 19 | 170 | 4.8 | 0.0 | 0.00 | 0.00 | 0.00 | 74 | 1011.0 |
| 20260506071339 | 19 | 180 | 3.2 | 0.0 | 0.00 | 0.00 | 0.00 | 74 | 1011.0 |
| 20260506071240 | 19 | 187 | 3.2 | 0.0 | 0.00 | 0.00 | 0.00 | 74 | 1011.0 |
| 20260506071142 | 19 | 168 | 3.2 | 0.0 | 0.00 | 0.00 | 0.00 | 74 | 1011.0 |
| 20260506071026 | 19 | 149 | 4.8 | 0.0 | 0.00 | 0.00 | 0.00 | 74 | 1011.0 |
| 20260506070927 | 19 | 122 | 4.8 | 0.0 | 0.00 | 0.00 | 0.00 | 74 | 1011.0 |
| 20260506070827 | 19 | 175 | 4.8 | 0.0 | 0.00 | 0.00 | 0.00 | 74 | 1011.0 |
| 20260506070729 | 19 | 183 | 4.8 | 0.0 | 0.00 | 0.00 | 0.00 | 73 | 1011.0 |
| 20260506070626 | 19 | 128 | 4.8 | 0.0 | 0.00 | 0.00 | 0.00 | 73 | 1011.0 |
| 20260506070528 | 19 | 156 | 4.8 | 0.0 | 0.00 | 0.00 | 0.00 | 73 | 1011.0 |
| 20260506070429 | 19 | 186 | 3.2 | 0.0 | 0.00 | 0.00 | 0.00 | 73 | 1011.0 |
| 20260506070338 | 19 | 173 | 3.2 | 0.0 | 0.00 | 0.00 | 0.00 | 73 | 1011.0 |
| 20260506070239 | 19 | 130 | 4.8 | 0.0 | 0.00 | 0.00 | 0.00 | 73 | 1011.0 |
| 20260506070140 | 19 | 174 | 3.2 | 0.0 | 0.00 | 0.00 | 0.00 | 73 | 1011.0 |
| 20260506062438 | 20 | 142 | 3.2 | 0.0 | 0.00 | 0.00 | 0.00 | 72 | 1011.1 |
| 20260506062339 | 20 | 197 | 3.2 | 0.0 | 0.00 | 0.00 | 0.00 | 71 | 1011.1 |
| 20260506062306 | 20 | 189 | 3.2 | 0.0 | 0.00 | 0.00 | 0.00 | 71 | 1011.1 |
| 20260506062144 | 20 | 132 | 1.6 | 0.0 | 0.00 | 0.00 | 0.00 | 71 | 1011.1 |
| 20260506062025 | 20 | 161 | 3.2 | 0.0 | 0.00 | 0.00 | 0.00 | 71 | 1011.1 |
| 20260506061945 | 20 | 158 | 3.2 | 0.0 | 0.00 | 0.00 | 0.00 | 71 | 1011.1 |
| 20260506061843 | 20 | 171 | 3.2 | 0.0 | 0.00 | 0.00 | 0.00 | 71 | 1011.1 |
| 20260506061724 | 20 | 165 | 3.2 | 0.0 | 0.00 | 0.00 | 0.00 | 71 | 1011.1 |
| 20260506061625 | 20 | 205 | 3.2 | 0.0 | 0.00 | 0.00 | 0.00 | 71 | 1011.1 |
| 20260506061546 | 20 | 94 | 3.2 | 0.0 | 0.00 | 0.00 | 0.00 | 71 | 1011.1 |
| 20260506061427 | 20 | 196 | 3.2 | 0.0 | 0.00 | 0.00 | 0.00 | 71 | 1011.1 |
| 20260506061329 | 20 | 144 | 3.2 | 0.0 | 0.00 | 0.00 | 0.00 | 71 | 1011.1 |
| 20260506061251 | 20 | 210 | 3.2 | 0.0 | 0.00 | 0.00 | 0.00 | 71 | 1011.1 |
| 20260506061152 | 20 | 182 | 4.8 | 0.0 | 0.00 | 0.00 | 0.00 | 71 | 1011.1 |
| 20260506061029 | 20 | 192 | 4.8 | 0.0 | 0.00 | 0.00 | 0.00 | 71 | 1011.1 |
| 20260506060929 | 20 | 166 | 4.8 | 0.0 | 0.00 | 0.00 | 0.00 | 70 | 1011.1 |
| 20260506060828 | 20 | 164 | 4.8 | 0.0 | 0.00 | 0.00 | 0.00 | 70 | 1011.1 |
| 20260506060750 | 20 | 160 | 4.8 | 0.0 | 0.00 | 0.00 | 0.00 | 70 | 1011.1 |
| 20260506060650 | 20 | 179 | 4.8 | 0.0 | 0.00 | 0.00 | 0.00 | 70 | 1011.1 |
| 20260506060536 | 20 | 188 | 4.8 | 0.0 | 0.00 | 0.00 | 0.00 | 70 | 1011.1 |
| 20260506060433 | 20 | 144 | 4.8 | 0.0 | 0.00 | 0.00 | 0.00 | 70 | 1011.1 |
| 20260506060355 | 20 | 156 | 4.8 | 0.0 | 0.00 | 0.00 | 0.00 | 70 | 1011.1 |
| 20260506060233 | 20 | 139 | 4.8 | 0.0 | 0.00 | 0.00 | 0.00 | 70 | 1011.1 |
| 20260506060133 | 20 | 176 | 4.8 | 0.0 | 0.00 | 0.00 | 0.00 | 70 | 1011.1 |
| 20260506051344 | 20 | 178 | 3.2 | 0.0 | 0.00 | 0.00 | 0.00 | 68 | 1011.6 |
| 20260506051221 | 20 | 192 | 3.2 | 0.0 | 0.00 | 0.00 | 0.00 | 67 | 1011.6 |
| 20260506051147 | 20 | 157 | 3.2 | 0.0 | 0.00 | 0.00 | 0.00 | 67 | 1011.6 |
| 20260506051028 | 20 | 105 | 3.2 | 0.0 | 0.00 | 0.00 | 0.00 | 68 | 1011.6 |
| 20260506050928 | 20 | 211 | 4.8 | 0.0 | 0.00 | 0.00 | 0.00 | 67 | 1011.6 |
| 20260506050831 | 20 | 178 | 3.2 | 0.0 | 0.00 | 0.00 | 0.00 | 67 | 1011.6 |
| 20260506050735 | 20 | 129 | 3.2 | 0.0 | 0.00 | 0.00 | 0.00 | 67 | 1011.6 |
| 20260506050637 | 20 | 106 | 3.2 | 0.0 | 0.00 | 0.00 | 0.00 | 67 | 1011.6 |
| 20260506050537 | 20 | 200 | 3.2 | 0.0 | 0.00 | 0.00 | 0.00 | 67 | 1011.6 |
| 20260506050455 | 20 | 153 | 3.2 | 0.0 | 0.00 | 0.00 | 0.00 | 67 | 1011.6 |
| 20260506050335 | 20 | 187 | 3.2 | 0.0 | 0.00 | 0.00 | 0.00 | 67 | 1011.6 |
| 20260506050235 | 20 | 153 | 3.2 | 0.0 | 0.00 | 0.00 | 0.00 | 67 | 1011.6 |
| 20260506050138 | 20 | 154 | 3.2 | 0.0 | 0.00 | 0.00 | 0.00 | 67 | 1011.6 |
| 20260506045126 | 20 | 127 | 3.2 | 0.0 | 0.00 | 0.00 | 0.00 | 66 | 1011.6 |
| 20260506045031 | 20 | 173 | 1.6 | 0.0 | 0.00 | 0.00 | 0.00 | 66 | 1011.6 |
| 20260506044932 | 20 | 160 | 1.6 | 0.0 | 0.00 | 0.00 | 0.00 | 66 | 1011.6 |
| 20260506044833 | 20 | 171 | 1.6 | 0.0 | 0.00 | 0.00 | 0.00 | 66 | 1011.6 |
| 20260506044733 | 20 | 173 | 1.6 | 0.0 | 0.00 | 0.00 | 0.00 | 66 | 1011.6 |
| 20260506044632 | 20 | 155 | 1.6 | 0.0 | 0.00 | 0.00 | 0.00 | 66 | 1011.6 |
| 20260506044537 | 20 | 142 | 1.6 | 0.0 | 0.00 | 0.00 | 0.00 | 66 | 1011.6 |
| 20260506044433 | 20 | 171 | 1.6 | 0.0 | 0.00 | 0.00 | 0.00 | 66 | 1011.6 |
| 20260506044339 | 20 | 155 | 1.6 | 0.0 | 0.00 | 0.00 | 0.00 | 66 | 1011.6 |
| 20260506044300 | 20 | 157 | 1.6 | 0.0 | 0.00 | 0.00 | 0.00 | 66 | 1011.6 |
| 20260506044141 | 20 | 115 | 1.6 | 0.0 | 0.00 | 0.00 | 0.00 | 65 | 1011.6 |
| 20260506044104 | 20 | 156 | 1.6 | 0.0 | 0.00 | 0.00 | 0.00 | 66 | 1011.6 |
| 20260506043942 | 20 | 157 | 1.6 | 0.0 | 0.00 | 0.00 | 0.00 | 65 | 1011.6 |
| 20260506043824 | 20 | 151 | 1.6 | 0.0 | 0.00 | 0.00 | 0.00 | 65 | 1011.6 |
| 20260506043746 | 20 | 129 | 1.6 | 0.0 | 0.00 | 0.00 | 0.00 | 65 | 1011.6 |
| 20260506043648 | 20 | 164 | 1.6 | 0.0 | 0.00 | 0.00 | 0.00 | 65 | 1011.6 |
| 20260506043530 | 20 | 161 | 1.6 | 0.0 | 0.00 | 0.00 | 0.00 | 65 | 1011.6 |
| 20260506043447 | 20 | 160 | 1.6 | 0.0 | 0.00 | 0.00 | 0.00 | 65 | 1011.6 |
| 20260506043328 | 20 | 154 | 1.6 | 0.0 | 0.00 | 0.00 | 0.00 | 65 | 1011.6 |
| 20260506043227 | 20 | 153 | 3.2 | 0.0 | 0.00 | 0.00 | 0.00 | 65 | 1011.6 |
| 20260506043127 | 20 | 157 | 3.2 | 0.0 | 0.00 | 0.00 | 0.00 | 65 | 1011.6 |
| 20260506043030 | 20 | 187 | 3.2 | 0.0 | 0.00 | 0.00 | 0.00 | 65 | 1011.6 |
| 20260506042934 | 20 | 182 | 3.2 | 0.0 | 0.00 | 0.00 | 0.00 | 65 | 1011.6 |
| 20260506042832 | 20 | 188 | 3.2 | 0.0 | 0.00 | 0.00 | 0.00 | 65 | 1011.6 |
| 20260506042737 | 20 | 194 | 3.2 | 0.0 | 0.00 | 0.00 | 0.00 | 65 | 1011.6 |
| 20260506042659 | 21 | 245 | 3.2 | 0.0 | 0.00 | 0.00 | 0.00 | 65 | 1011.6 |
| 20260506042541 | 21 | 218 | 3.2 | 0.0 | 0.00 | 0.00 | 0.00 | 65 | 1011.6 |
| 20260506042501 | 21 | 180 | 3.2 | 0.0 | 0.00 | 0.00 | 0.00 | 65 | 1011.6 |
| 20260506042342 | 21 | 180 | 3.2 | 0.0 | 0.00 | 0.00 | 0.00 | 65 | 1011.6 |
| 20260506042305 | 20 | 194 | 3.2 | 0.0 | 0.00 | 0.00 | 0.00 | 65 | 1011.6 |
| 20260506042128 | 20 | 144 | 3.2 | 0.0 | 0.00 | 0.00 | 0.00 | 65 | 1011.6 |
| 20260506042028 | 20 | 163 | 3.2 | 0.0 | 0.00 | 0.00 | 0.00 | 65 | 1011.6 |
| 20260506041928 | 20 | 163 | 3.2 | 0.0 | 0.00 | 0.00 | 0.00 | 65 | 1011.6 |
| 20260506041827 | 20 | 192 | 3.2 | 0.0 | 0.00 | 0.00 | 0.00 | 65 | 1011.6 |
| 20260506041728 | 20 | 161 | 1.6 | 0.0 | 0.00 | 0.00 | 0.00 | 65 | 1011.6 |
| 20260506041627 | 20 | 172 | 1.6 | 0.0 | 0.00 | 0.00 | 0.00 | 65 | 1011.6 |
| 20260506041536 | 20 | 176 | 1.6 | 0.0 | 0.00 | 0.00 | 0.00 | 65 | 1011.6 |
| 20260506041437 | 20 | 164 | 1.6 | 0.0 | 0.00 | 0.00 | 0.00 | 65 | 1011.6 |
| 20260506041340 | 20 | 175 | 1.6 | 0.0 | 0.00 | 0.00 | 0.00 | 65 | 1011.6 |
| 20260506041240 | 20 | 175 | 1.6 | 0.0 | 0.00 | 0.00 | 0.00 | 65 | 1011.6 |
| 20260506041203 | 20 | 151 | 3.2 | 0.0 | 0.00 | 0.00 | 0.00 | 65 | 1011.6 |
| 20260506041040 | 20 | 149 | 1.6 | 0.0 | 0.00 | 0.00 | 0.00 | 65 | 1011.6 |
| 20260506040940 | 20 | 136 | 1.6 | 0.0 | 0.00 | 0.00 | 0.00 | 65 | 1011.6 |
| 20260506040841 | 20 | 140 | 3.2 | 0.0 | 0.00 | 0.00 | 0.00 | 65 | 1011.6 |
| 20260506040723 | 20 | 167 | 3.2 | 0.0 | 0.00 | 0.00 | 0.00 | 65 | 1011.6 |
| 20260506040645 | 20 | 165 | 3.2 | 0.0 | 0.00 | 0.00 | 0.00 | 65 | 1011.6 |
| 20260506040559 | 20 | 220 | 3.2 | 0.0 | 0.00 | 0.00 | 0.00 | 65 | 1011.6 |
| 20260506040439 | 20 | 151 | 3.2 | 0.0 | 0.00 | 0.00 | 0.00 | 64 | 1011.6 |
| 20260506040341 | 20 | 152 | 3.2 | 0.0 | 0.00 | 0.00 | 0.00 | 65 | 1011.6 |
| 20260506040239 | 20 | 186 | 3.2 | 0.0 | 0.00 | 0.00 | 0.00 | 64 | 1011.6 |
| 20260506040144 | 20 | 159 | 3.2 | 0.0 | 0.00 | 0.00 | 0.00 | 64 | 1011.6 |
| 20260506040043 | 20 | 163 | 3.2 | 0.0 | 0.00 | 0.00 | 0.00 | 64 | 1011.6 |
| 20260506035945 | 20 | 179 | 3.2 | 0.0 | 0.00 | 0.00 | 0.00 | 64 | 1011.6 |
| 20260506035904 | 20 | 153 | 4.8 | 0.0 | 0.00 | 0.00 | 0.00 | 64 | 1011.6 |
| 20260506035745 | 20 | 172 | 3.2 | 0.0 | 0.00 | 0.00 | 0.00 | 64 | 1011.6 |
| 20260506035644 | 20 | 195 | 3.2 | 0.0 | 0.00 | 0.00 | 0.00 | 64 | 1011.6 |
| 20260506035529 | 20 | 153 | 3.2 | 0.0 | 0.00 | 0.00 | 0.00 | 64 | 1011.6 |
| 20260506035425 | 20 | 172 | 3.2 | 0.0 | 0.00 | 0.00 | 0.00 | 64 | 1011.6 |
| 20260506035328 | 20 | 161 | 3.2 | 0.0 | 0.00 | 0.00 | 0.00 | 64 | 1011.6 |
| 20260506035227 | 20 | 161 | 4.8 | 0.0 | 0.00 | 0.00 | 0.00 | 64 | 1011.6 |
| 20260506035131 | 20 | 157 | 3.2 | 0.0 | 0.00 | 0.00 | 0.00 | 64 | 1011.6 |
| 20260506035030 | 20 | 154 | 3.2 | 0.0 | 0.00 | 0.00 | 0.00 | 64 | 1011.6 |
| 20260506034949 | 20 | 163 | 4.8 | 0.0 | 0.00 | 0.00 | 0.00 | 64 | 1011.6 |
| 20260506034831 | 20 | 166 | 3.2 | 0.0 | 0.00 | 0.00 | 0.00 | 64 | 1011.6 |
| 20260506034733 | 20 | 161 | 3.2 | 0.0 | 0.00 | 0.00 | 0.00 | 64 | 1011.6 |
| 20260506034631 | 20 | 182 | 3.2 | 0.0 | 0.00 | 0.00 | 0.00 | 64 | 1011.6 |
| 20260506034534 | 20 | 170 | 1.6 | 0.0 | 0.00 | 0.00 | 0.00 | 64 | 1011.6 |
| 20260506034430 | 20 | 153 | 3.2 | 0.0 | 0.00 | 0.00 | 0.00 | 64 | 1011.6 |
| 20260506034332 | 20 | 181 | 1.6 | 0.0 | 0.00 | 0.00 | 0.00 | 64 | 1011.6 |
| 20260506034229 | 20 | 123 | 3.2 | 0.0 | 0.00 | 0.00 | 0.00 | 63 | 1011.6 |
| 20260506034135 | 20 | 145 | 3.2 | 0.0 | 0.00 | 0.00 | 0.00 | 63 | 1011.6 |
| 20260506034057 | 20 | 179 | 1.6 | 0.0 | 0.00 | 0.00 | 0.00 | 63 | 1011.6 |
| 20260506033937 | 20 | 194 | 1.6 | 0.0 | 0.00 | 0.00 | 0.00 | 63 | 1011.6 |
| 20260506033836 | 20 | 178 | 1.6 | 0.0 | 0.00 | 0.00 | 0.00 | 63 | 1011.6 |
| 20260506033739 | 20 | 178 | 1.6 | 0.0 | 0.00 | 0.00 | 0.00 | 63 | 1011.6 |
| 20260506033637 | 20 | 178 | 1.6 | 0.0 | 0.00 | 0.00 | 0.00 | 63 | 1011.6 |
| 20260506033539 | 20 | 178 | 1.6 | 0.0 | 0.00 | 0.00 | 0.00 | 63 | 1011.6 |
| 20260506033503 | 20 | 159 | 1.6 | 0.0 | 0.00 | 0.00 | 0.00 | 63 | 1011.6 |
| 20260506033324 | 20 | 166 | 1.6 | 0.0 | 0.00 | 0.00 | 0.00 | 63 | 1011.6 |
| 20260506033245 | 20 | 169 | 0.0 | 0.0 | 0.00 | 0.00 | 0.00 | 63 | 1011.6 |
| 20260506033206 | 20 | 133 | 0.0 | 0.0 | 0.00 | 0.00 | 0.00 | 63 | 1011.6 |
| 20260506033024 | 20 | 147 | 0.0 | 0.0 | 0.00 | 0.00 | 0.00 | 63 | 1011.6 |
| 20260506032947 | 20 | 109 | 0.0 | 0.0 | 0.00 | 0.00 | 0.00 | 63 | 1011.6 |
| 20260506032828 | 20 | 139 | 0.0 | 0.0 | 0.00 | 0.00 | 0.00 | 63 | 1011.6 |
| 20260506032734 | 20 | 138 | 0.0 | 0.0 | 0.00 | 0.00 | 0.00 | 63 | 1011.6 |
| 20260506032653 | 20 | 138 | 1.6 | 0.0 | 0.00 | 0.00 | 0.00 | 62 | 1011.6 |
| 20260506032534 | 20 | 163 | 1.6 | 0.0 | 0.00 | 0.00 | 0.00 | 62 | 1011.6 |
| 20260506032434 | 20 | 184 | 1.6 | 0.0 | 0.00 | 0.00 | 0.00 | 62 | 1011.6 |
| 20260506032337 | 20 | 151 | 1.6 | 0.0 | 0.00 | 0.00 | 0.00 | 62 | 1011.6 |
| 20260506032238 | 20 | 151 | 1.6 | 0.0 | 0.00 | 0.00 | 0.00 | 62 | 1011.6 |
| 20260506032203 | 20 | 151 | 1.6 | 0.0 | 0.00 | 0.00 | 0.00 | 62 | 1011.6 |
| 20260506032025 | 20 | 140 | 1.6 | 0.0 | 0.00 | 0.00 | 0.00 | 62 | 1011.6 |
| 20260506031945 | 20 | 140 | 1.6 | 0.0 | 0.00 | 0.00 | 0.00 | 62 | 1011.6 |
| 20260506031843 | 20 | 144 | 1.6 | 0.0 | 0.00 | 0.00 | 0.00 | 62 | 1011.6 |
| 20260506031744 | 20 | 194 | 1.6 | 0.0 | 0.00 | 0.00 | 0.00 | 62 | 1011.6 |
| 20260506031624 | 20 | 153 | 1.6 | 0.0 | 0.00 | 0.00 | 0.00 | 62 | 1011.6 |
| 20260506031529 | 21 | 130 | 1.6 | 0.0 | 0.00 | 0.00 | 0.00 | 62 | 1011.6 |
| 20260506031425 | 20 | 168 | 1.6 | 0.0 | 0.00 | 0.00 | 0.00 | 62 | 1011.6 |
| 20260506031350 | 21 | 168 | 1.6 | 0.0 | 0.00 | 0.00 | 0.00 | 62 | 1011.6 |
| 20260506031227 | 21 | 116 | 1.6 | 0.0 | 0.00 | 0.00 | 0.00 | 62 | 1011.6 |
| 20260506031131 | 21 | 141 | 1.6 | 0.0 | 0.00 | 0.00 | 0.00 | 61 | 1011.6 |
| 20260506031034 | 21 | 168 | 1.6 | 0.0 | 0.00 | 0.00 | 0.00 | 61 | 1011.6 |
| 20260506030954 | 21 | 119 | 1.6 | 0.0 | 0.00 | 0.00 | 0.00 | 61 | 1011.6 |
| 20260506030835 | 21 | 147 | 1.6 | 0.0 | 0.00 | 0.00 | 0.00 | 61 | 1011.6 |
| 20260506030736 | 21 | 146 | 1.6 | 0.0 | 0.00 | 0.00 | 0.00 | 61 | 1011.6 |
| 20260506030622 | 21 | 157 | 1.6 | 0.0 | 0.00 | 0.00 | 0.00 | 61 | 1011.6 |
| 20260506030528 | 21 | 172 | 1.6 | 0.0 | 0.00 | 0.00 | 0.00 | 61 | 1011.6 |
| 20260506030426 | 21 | 141 | 1.6 | 0.0 | 0.00 | 0.00 | 0.00 | 61 | 1011.6 |
| 20260506030351 | 21 | 141 | 1.6 | 0.0 | 0.00 | 0.00 | 0.00 | 61 | 1011.6 |
| 20260506030236 | 21 | 137 | 1.6 | 0.0 | 0.00 | 0.00 | 0.00 | 61 | 1011.6 |
| 20260506030157 | 21 | 161 | 1.6 | 0.0 | 0.00 | 0.00 | 0.00 | 61 | 1011.6 |
| 20260506030039 | 21 | 148 | 1.6 | 0.0 | 0.00 | 0.00 | 0.00 | 61 | 1011.6 |
| 20260506025925 | 21 | 212 | 1.6 | 0.0 | 0.00 | 0.00 | 0.00 | 60 | 1011.6 |
| 20260506025729 | 21 | 162 | 1.6 | 0.0 | 0.00 | 0.00 | 0.00 | 61 | 1011.6 |
| 20260506025627 | 21 | 176 | 1.6 | 0.0 | 0.00 | 0.00 | 0.00 | 60 | 1011.6 |
| 20260506025529 | 21 | 143 | 1.6 | 0.0 | 0.00 | 0.00 | 0.00 | 60 | 1011.6 |
| 20260506025426 | 21 | 145 | 1.6 | 0.0 | 0.00 | 0.00 | 0.00 | 60 | 1011.6 |
| 20260506025347 | 21 | 145 | 1.6 | 0.0 | 0.00 | 0.00 | 0.00 | 60 | 1011.6 |
| 20260506025249 | 21 | 151 | 1.6 | 0.0 | 0.00 | 0.00 | 0.00 | 60 | 1011.6 |
| 20260506025130 | 21 | 176 | 1.6 | 0.0 | 0.00 | 0.00 | 0.00 | 60 | 1011.6 |
| 20260506025032 | 21 | 178 | 1.6 | 0.0 | 0.00 | 0.00 | 0.00 | 60 | 1011.6 |
| 20260506024933 | 21 | 147 | 1.6 | 0.0 | 0.00 | 0.00 | 0.00 | 60 | 1011.6 |
| 20260506024851 | 21 | 145 | 1.6 | 0.0 | 0.00 | 0.00 | 0.00 | 60 | 1011.6 |
| 20260506024736 | 21 | 146 | 1.6 | 0.0 | 0.00 | 0.00 | 0.00 | 60 | 1011.6 |
| 20260506024635 | 21 | 133 | 3.2 | 0.0 | 0.00 | 0.00 | 0.00 | 60 | 1011.6 |
| 20260506024541 | 21 | 190 | 3.2 | 0.0 | 0.00 | 0.00 | 0.00 | 60 | 1011.6 |
| 20260506024437 | 21 | 157 | 3.2 | 0.0 | 0.00 | 0.00 | 0.00 | 60 | 1011.6 |
| 20260506024339 | 21 | 180 | 3.2 | 0.0 | 0.00 | 0.00 | 0.00 | 60 | 1011.6 |
| 20260506024240 | 21 | 148 | 3.2 | 0.0 | 0.00 | 0.00 | 0.00 | 60 | 1011.6 |
| 20260506024201 | 21 | 159 | 3.2 | 0.0 | 0.00 | 0.00 | 0.00 | 60 | 1011.6 |
| 20260506024042 | 21 | 176 | 3.2 | 0.0 | 0.00 | 0.00 | 0.00 | 60 | 1011.6 |
| 20260506024004 | 21 | 162 | 3.2 | 0.0 | 0.00 | 0.00 | 0.00 | 60 | 1011.6 |
| 20260506023824 | 21 | 165 | 1.6 | 0.0 | 0.00 | 0.00 | 0.00 | 59 | 1011.6 |
| 20260506023746 | 21 | 161 | 1.6 | 0.0 | 0.00 | 0.00 | 0.00 | 59 | 1011.6 |
| 20260506023625 | 21 | 170 | 1.6 | 0.0 | 0.00 | 0.00 | 0.00 | 59 | 1011.6 |
| 20260506023530 | 21 | 240 | 1.6 | 0.0 | 0.00 | 0.00 | 0.00 | 59 | 1011.6 |
| 20260506023447 | 21 | 215 | 1.6 | 0.0 | 0.00 | 0.00 | 0.00 | 59 | 1011.6 |
| 20260506023332 | 21 | 147 | 1.6 | 0.0 | 0.00 | 0.00 | 0.00 | 59 | 1011.6 |
| 20260506023232 | 21 | 142 | 1.6 | 0.0 | 0.00 | 0.00 | 0.00 | 59 | 1011.6 |
| 20260506023137 | 21 | 176 | 1.6 | 0.0 | 0.00 | 0.00 | 0.00 | 59 | 1011.6 |
| 20260506023036 | 21 | 185 | 1.6 | 0.0 | 0.00 | 0.00 | 0.00 | 59 | 1011.6 |
| 20260506022937 | 21 | 136 | 1.6 | 0.0 | 0.00 | 0.00 | 0.00 | 59 | 1011.6 |
| 20260506022834 | 21 | 133 | 1.6 | 0.0 | 0.00 | 0.00 | 0.00 | 59 | 1011.6 |
| 20260506022737 | 21 | 147 | 1.6 | 0.0 | 0.00 | 0.00 | 0.00 | 59 | 1011.6 |
| 20260506022635 | 21 | 157 | 1.6 | 0.0 | 0.00 | 0.00 | 0.00 | 59 | 1011.6 |
| 20260506022538 | 21 | 195 | 1.6 | 0.0 | 0.00 | 0.00 | 0.00 | 59 | 1011.6 |
| 20260506022443 | 21 | 148 | 3.2 | 0.0 | 0.00 | 0.00 | 0.00 | 59 | 1011.6 |
| 20260506022344 | 21 | 148 | 3.2 | 0.0 | 0.00 | 0.00 | 0.00 | 59 | 1011.6 |
| 20260506022225 | 21 | 157 | 3.2 | 0.0 | 0.00 | 0.00 | 0.00 | 59 | 1011.6 |
| 20260506022127 | 21 | 201 | 3.2 | 0.0 | 0.00 | 0.00 | 0.00 | 59 | 1011.6 |
| 20260506022025 | 21 | 149 | 1.6 | 0.0 | 0.00 | 0.00 | 0.00 | 59 | 1011.6 |
| 20260506021929 | 21 | 180 | 1.6 | 0.0 | 0.00 | 0.00 | 0.00 | 59 | 1011.6 |
| 20260506021831 | 21 | 182 | 1.6 | 0.0 | 0.00 | 0.00 | 0.00 | 59 | 1011.6 |
| 20260506021734 | 21 | 174 | 1.6 | 0.0 | 0.00 | 0.00 | 0.00 | 59 | 1011.6 |
| 20260506021631 | 21 | 178 | 1.6 | 0.0 | 0.00 | 0.00 | 0.00 | 59 | 1011.6 |
| 20260506021533 | 21 | 178 | 1.6 | 0.0 | 0.00 | 0.00 | 0.00 | 59 | 1011.6 |
| 20260506021430 | 21 | 157 | 1.6 | 0.0 | 0.00 | 0.00 | 0.00 | 59 | 1011.6 |
| 20260506021333 | 21 | 126 | 1.6 | 0.0 | 0.00 | 0.00 | 0.00 | 59 | 1011.6 |
| 20260506021251 | 21 | 171 | 1.6 | 0.0 | 0.00 | 0.00 | 0.00 | 59 | 1011.6 |
| 20260506021135 | 21 | 151 | 1.6 | 0.0 | 0.00 | 0.00 | 0.00 | 59 | 1011.6 |
| 20260506021058 | 21 | 151 | 3.2 | 0.0 | 0.00 | 0.00 | 0.00 | 59 | 1011.6 |
| 20260506020937 | 21 | 159 | 3.2 | 0.0 | 0.00 | 0.00 | 0.00 | 58 | 1011.6 |
| 20260506020839 | 21 | 138 | 3.2 | 0.0 | 0.00 | 0.00 | 0.00 | 58 | 1011.6 |
| 20260506020744 | 21 | 143 | 3.2 | 0.0 | 0.00 | 0.00 | 0.00 | 59 | 1011.6 |
| 20260506020624 | 21 | 140 | 3.2 | 0.0 | 0.00 | 0.00 | 0.00 | 58 | 1011.6 |
| 20260506020531 | 21 | 147 | 3.2 | 0.0 | 0.00 | 0.00 | 0.00 | 58 | 1011.6 |
| 20260506020426 | 21 | 156 | 3.2 | 0.0 | 0.00 | 0.00 | 0.00 | 58 | 1011.6 |
| 20260506020328 | 21 | 165 | 1.6 | 0.0 | 0.00 | 0.00 | 0.00 | 58 | 1011.6 |
| 20260506020227 | 21 | 148 | 1.6 | 0.0 | 0.00 | 0.00 | 0.00 | 58 | 1011.6 |
| 20260506020127 | 21 | 169 | 3.2 | 0.0 | 0.00 | 0.00 | 0.00 | 58 | 1011.6 |
| 20260506020030 | 21 | 152 | 1.6 | 0.0 | 0.00 | 0.00 | 0.00 | 58 | 1011.6 |
| 20260506015930 | 21 | 155 | 1.6 | 0.0 | 0.00 | 0.00 | 0.00 | 58 | 1011.6 |
| 20260506015832 | 22 | 143 | 3.2 | 0.0 | 0.00 | 0.00 | 0.00 | 58 | 1011.4 |
| 20260506015754 | 22 | 160 | 3.2 | 0.0 | 0.00 | 0.00 | 0.00 | 58 | 1011.4 |
| 20260506015655 | 22 | 174 | 3.2 | 0.0 | 0.00 | 0.00 | 0.00 | 58 | 1011.4 |
| 20260506015536 | 22 | 135 | 3.2 | 0.0 | 0.00 | 0.00 | 0.00 | 57 | 1011.4 |
| 20260506015453 | 22 | 159 | 3.2 | 0.0 | 0.00 | 0.00 | 0.00 | 57 | 1011.4 |
| 20260506015354 | 22 | 158 | 3.2 | 0.0 | 0.00 | 0.00 | 0.00 | 57 | 1011.4 |
| 20260506015232 | 22 | 138 | 3.2 | 0.0 | 0.00 | 0.00 | 0.00 | 57 | 1011.4 |
| 20260506015136 | 22 | 136 | 1.6 | 0.0 | 0.00 | 0.00 | 0.00 | 57 | 1011.4 |
| 20260506015042 | 22 | 123 | 1.6 | 0.0 | 0.00 | 0.00 | 0.00 | 57 | 1011.4 |
| 20260506014942 | 22 | 122 | 1.6 | 0.0 | 0.00 | 0.00 | 0.00 | 56 | 1011.4 |
| 20260506014841 | 22 | 136 | 1.6 | 0.0 | 0.00 | 0.00 | 0.00 | 56 | 1011.4 |
| 20260506014741 | 22 | 136 | 1.6 | 0.0 | 0.00 | 0.00 | 0.00 | 56 | 1011.4 |
| 20260506014639 | 22 | 135 | 1.6 | 0.0 | 0.00 | 0.00 | 0.00 | 56 | 1011.4 |
| 20260506014541 | 22 | 140 | 1.6 | 0.0 | 0.00 | 0.00 | 0.00 | 56 | 1011.4 |
| 20260506014425 | 22 | 144 | 1.6 | 0.0 | 0.00 | 0.00 | 0.00 | 56 | 1011.4 |
| 20260506014327 | 22 | 149 | 1.6 | 0.0 | 0.00 | 0.00 | 0.00 | 56 | 1011.1 |
| 20260506014227 | 22 | 131 | 1.6 | 0.0 | 0.00 | 0.00 | 0.00 | 56 | 1011.1 |
| 20260506014128 | 22 | 159 | 1.6 | 0.0 | 0.00 | 0.00 | 0.00 | 55 | 1011.1 |
| 20260506014047 | 22 | 159 | 1.6 | 0.0 | 0.00 | 0.00 | 0.00 | 55 | 1011.1 |
| 20260506013950 | 22 | 140 | 1.6 | 0.0 | 0.00 | 0.00 | 0.00 | 55 | 1011.1 |
| 20260506013830 | 22 | 169 | 1.6 | 0.0 | 0.00 | 0.00 | 0.00 | 55 | 1011.1 |
| 20260506013732 | 22 | 161 | 1.6 | 0.0 | 0.00 | 0.00 | 0.00 | 55 | 1011.1 |
| 20260506013653 | 22 | 155 | 3.2 | 0.0 | 0.00 | 0.00 | 0.00 | 55 | 1011.1 |
| 20260506013533 | 22 | 149 | 3.2 | 0.0 | 0.00 | 0.00 | 0.00 | 55 | 1011.1 |
| 20260506013431 | 22 | 174 | 3.2 | 0.0 | 0.00 | 0.00 | 0.00 | 55 | 1011.1 |
| 20260506013333 | 22 | 132 | 3.2 | 0.0 | 0.00 | 0.00 | 0.00 | 55 | 1011.1 |
| 20260506013231 | 22 | 164 | 3.2 | 0.0 | 0.00 | 0.00 | 0.00 | 55 | 1011.1 |
| 20260506013137 | 22 | 247 | 3.2 | 0.0 | 0.00 | 0.00 | 0.00 | 54 | 1011.1 |
| 20260506013034 | 22 | 184 | 3.2 | 0.0 | 0.00 | 0.00 | 0.00 | 54 | 1011.1 |
| 20260506012939 | 22 | 146 | 3.2 | 0.0 | 0.00 | 0.00 | 0.00 | 54 | 1011.1 |
| 20260506012837 | 22 | 146 | 3.2 | 0.0 | 0.00 | 0.00 | 0.00 | 54 | 1011.0 |
| 20260506012738 | 22 | 188 | 3.2 | 0.0 | 0.00 | 0.00 | 0.00 | 54 | 1011.0 |
| 20260506012637 | 22 | 138 | 3.2 | 0.0 | 0.00 | 0.00 | 0.00 | 54 | 1011.0 |
| 20260506012539 | 22 | 254 | 3.2 | 0.0 | 0.00 | 0.00 | 0.00 | 54 | 1011.0 |
| 20260506012455 | 22 | 159 | 3.2 | 0.0 | 0.00 | 0.00 | 0.00 | 54 | 1011.0 |
| 20260506012335 | 22 | 178 | 3.2 | 0.0 | 0.00 | 0.00 | 0.00 | 54 | 1011.0 |
| 20260506012237 | 22 | 170 | 4.8 | 0.0 | 0.00 | 0.00 | 0.00 | 54 | 1011.0 |
| 20260506012139 | 22 | 140 | 4.8 | 0.0 | 0.00 | 0.00 | 0.00 | 54 | 1011.0 |
| 20260506012040 | 22 | 177 | 4.8 | 0.0 | 0.00 | 0.00 | 0.00 | 54 | 1011.0 |
| 20260506012000 | 23 | 205 | 4.8 | 0.0 | 0.00 | 0.00 | 0.00 | 54 | 1011.0 |
| 20260506011840 | 22 | 119 | 4.8 | 0.0 | 0.00 | 0.00 | 0.00 | 54 | 1011.0 |
| 20260506011742 | 23 | 170 | 4.8 | 0.0 | 0.00 | 0.00 | 0.00 | 53 | 1011.0 |
| 20260506011623 | 23 | 177 | 4.8 | 0.0 | 0.00 | 0.00 | 0.00 | 53 | 1011.0 |
| 20260506011530 | 23 | 156 | 6.4 | 0.0 | 0.00 | 0.00 | 0.00 | 53 | 1011.0 |
| 20260506011430 | 23 | 163 | 6.4 | 0.0 | 0.00 | 0.00 | 0.00 | 53 | 1011.0 |
| 20260506011331 | 23 | 120 | 6.4 | 0.0 | 0.00 | 0.00 | 0.00 | 53 | 1011.0 |
| 20260506011230 | 23 | 143 | 6.4 | 0.0 | 0.00 | 0.00 | 0.00 | 53 | 1011.0 |
| 20260506011152 | 23 | 166 | 6.4 | 0.0 | 0.00 | 0.00 | 0.00 | 53 | 1011.0 |
| 20260506011050 | 23 | 197 | 6.4 | 0.0 | 0.00 | 0.00 | 0.00 | 52 | 1011.0 |
| 20260506010929 | 23 | 159 | 4.8 | 0.0 | 0.00 | 0.00 | 0.00 | 52 | 1011.0 |
| 20260506010833 | 23 | 157 | 4.8 | 0.0 | 0.00 | 0.00 | 0.00 | 52 | 1011.0 |
| 20260506010736 | 23 | 163 | 4.8 | 0.0 | 0.00 | 0.00 | 0.00 | 52 | 1011.0 |
| 20260506010654 | 23 | 211 | 4.8 | 0.0 | 0.00 | 0.00 | 0.00 | 52 | 1011.0 |
| 20260506010538 | 23 | 199 | 4.8 | 0.0 | 0.00 | 0.00 | 0.00 | 52 | 1011.0 |
| 20260506010459 | 23 | 184 | 4.8 | 0.0 | 0.00 | 0.00 | 0.00 | 52 | 1011.0 |
| 20260506010338 | 23 | 181 | 4.8 | 0.0 | 0.00 | 0.00 | 0.00 | 51 | 1011.0 |
| 20260506010300 | 23 | 170 | 4.8 | 0.0 | 0.00 | 0.00 | 0.00 | 51 | 1011.0 |
| 20260506010125 | 23 | 157 | 4.8 | 0.0 | 0.00 | 0.00 | 0.00 | 51 | 1011.0 |
| 20260506010026 | 23 | 195 | 4.8 | 0.0 | 0.00 | 0.00 | 0.00 | 51 | 1011.0 |
| 20260506005926 | 23 | 70 | 6.4 | 0.0 | 0.00 | 0.00 | 0.00 | 51 | 1010.9 |
| 20260506005828 | 23 | 81 | 6.4 | 0.0 | 0.00 | 0.00 | 0.00 | 51 | 1010.6 |
| 20260506005729 | 23 | 174 | 6.4 | 0.0 | 0.00 | 0.00 | 0.00 | 50 | 1010.6 |
| 20260506005630 | 23 | 149 | 4.8 | 0.0 | 0.00 | 0.00 | 0.00 | 50 | 1010.6 |
| 20260506005555 | 23 | 191 | 4.8 | 0.0 | 0.00 | 0.00 | 0.00 | 50 | 1010.6 |
| 20260506005434 | 23 | 177 | 4.8 | 0.0 | 0.00 | 0.00 | 0.00 | 50 | 1010.6 |
| 20260506005336 | 23 | 181 | 4.8 | 0.0 | 0.00 | 0.00 | 0.00 | 49 | 1010.6 |
| 20260506005259 | 23 | 153 | 4.8 | 0.0 | 0.00 | 0.00 | 0.00 | 49 | 1010.6 |
| 20260506005138 | 23 | 209 | 4.8 | 0.0 | 0.00 | 0.00 | 0.00 | 49 | 1010.6 |
| 20260506005037 | 23 | 171 | 4.8 | 0.0 | 0.00 | 0.00 | 0.00 | 49 | 1010.6 |
| 20260506004941 | 23 | 132 | 6.4 | 0.0 | 0.00 | 0.00 | 0.00 | 49 | 1010.6 |
| 20260506004840 | 23 | 173 | 6.4 | 0.0 | 0.00 | 0.00 | 0.00 | 49 | 1010.6 |
| 20260506004745 | 23 | 163 | 6.4 | 0.0 | 0.00 | 0.00 | 0.00 | 48 | 1010.6 |
| 20260506004642 | 23 | 182 | 6.4 | 0.0 | 0.00 | 0.00 | 0.00 | 48 | 1010.6 |
| 20260506004543 | 23 | 178 | 8.0 | 0.0 | 0.00 | 0.00 | 0.00 | 48 | 1010.6 |
| 20260506004442 | 23 | 165 | 8.0 | 0.0 | 0.00 | 0.00 | 0.00 | 48 | 1010.6 |
| 20260506004343 | 23 | 162 | 8.0 | 0.0 | 0.00 | 0.00 | 0.00 | 48 | 1010.5 |
| 20260506004221 | 23 | 129 | 8.0 | 0.0 | 0.00 | 0.00 | 0.00 | 48 | 1010.5 |
| 20260506004129 | 23 | 147 | 8.0 | 0.0 | 0.00 | 0.00 | 0.00 | 48 | 1010.5 |
| 20260506004028 | 23 | 202 | 8.0 | 0.0 | 0.00 | 0.00 | 0.00 | 47 | 1010.5 |
| 20260506003928 | 24 | 158 | 6.4 | 0.0 | 0.00 | 0.00 | 0.00 | 47 | 1010.5 |
| 20260506003848 | 24 | 117 | 8.0 | 0.0 | 0.00 | 0.00 | 0.00 | 47 | 1010.5 |
| 20260506003729 | 24 | 189 | 8.0 | 0.0 | 0.00 | 0.00 | 0.00 | 47 | 1010.5 |
| 20260506003627 | 24 | 165 | 8.0 | 0.0 | 0.00 | 0.00 | 0.00 | 47 | 1010.5 |
| 20260506003533 | 24 | 184 | 8.0 | 0.0 | 0.00 | 0.00 | 0.00 | 47 | 1010.5 |
| 20260506003449 | 24 | 172 | 8.0 | 0.0 | 0.00 | 0.00 | 0.00 | 46 | 1010.5 |
| 20260506003333 | 24 | 148 | 8.0 | 0.0 | 0.00 | 0.00 | 0.00 | 46 | 1010.5 |
| 20260506003256 | 24 | 137 | 8.0 | 0.0 | 0.00 | 0.00 | 0.00 | 46 | 1010.5 |
| 20260506003136 | 24 | 168 | 8.0 | 0.0 | 0.00 | 0.00 | 0.00 | 46 | 1010.5 |
| 20260506003039 | 24 | 203 | 9.7 | 0.0 | 0.00 | 0.00 | 0.00 | 46 | 1010.5 |
| 20260506002942 | 24 | 169 | 9.7 | 0.0 | 0.00 | 0.00 | 0.00 | 45 | 1010.5 |
| 20260506002841 | 24 | 170 | 9.7 | 0.0 | 0.00 | 0.00 | 0.00 | 45 | 1010.2 |
| 20260506002742 | 24 | 163 | 8.0 | 0.0 | 0.00 | 0.00 | 0.00 | 45 | 1010.2 |
| 20260506002625 | 25 | 162 | 6.4 | 0.0 | 0.00 | 0.00 | 0.00 | 44 | 1010.2 |
| 20260506002547 | 25 | 222 | 6.4 | 0.0 | 0.00 | 0.00 | 0.00 | 44 | 1010.2 |
| 20260506002426 | 25 | 177 | 4.8 | 0.0 | 0.00 | 0.00 | 0.00 | 44 | 1010.2 |
| 20260506002327 | 25 | 159 | 4.8 | 0.0 | 0.00 | 0.00 | 0.00 | 43 | 1010.2 |
| 20260506002229 | 25 | 199 | 6.4 | 0.0 | 0.00 | 0.00 | 0.00 | 43 | 1010.2 |
| 20260506002130 | 25 | 179 | 6.4 | 0.0 | 0.00 | 0.00 | 0.00 | 43 | 1010.2 |
| 20260506002036 | 25 | 178 | 4.8 | 0.0 | 0.00 | 0.00 | 0.00 | 43 | 1010.2 |
| 20260506001956 | 25 | 156 | 4.8 | 0.0 | 0.00 | 0.00 | 0.00 | 43 | 1010.2 |
| 20260506001837 | 25 | 155 | 6.4 | 0.0 | 0.00 | 0.00 | 0.00 | 42 | 1010.2 |
| 20260506001740 | 25 | 149 | 6.4 | 0.0 | 0.00 | 0.00 | 0.00 | 42 | 1010.2 |
| 20260506001638 | 25 | 146 | 6.4 | 0.0 | 0.00 | 0.00 | 0.00 | 42 | 1010.2 |
| 20260506001540 | 25 | 207 | 8.0 | 0.0 | 0.00 | 0.00 | 0.00 | 42 | 1010.2 |
| 20260506001436 | 25 | 158 | 8.0 | 0.0 | 0.00 | 0.00 | 0.00 | 42 | 1010.2 |
| 20260506001341 | 25 | 163 | 6.4 | 0.0 | 0.00 | 0.00 | 0.00 | 41 | 1010.0 |
| 20260506001242 | 25 | 162 | 6.4 | 0.0 | 0.00 | 0.00 | 0.00 | 41 | 1010.0 |
| 20260506001124 | 25 | 168 | 6.4 | 0.0 | 0.00 | 0.00 | 0.00 | 41 | 1010.0 |
| 20260506001027 | 25 | 142 | 4.8 | 0.0 | 0.00 | 0.00 | 0.00 | 41 | 1010.0 |
| 20260506000931 | 25 | 150 | 4.8 | 0.0 | 0.00 | 0.00 | 0.00 | 41 | 1010.0 |
| 20260506000849 | 25 | 199 | 4.8 | 0.0 | 0.00 | 0.00 | 0.00 | 41 | 1010.0 |
| 20260506000733 | 25 | 145 | 4.8 | 0.0 | 0.00 | 0.00 | 0.00 | 41 | 1010.0 |
| 20260506000639 | 25 | 156 | 3.2 | 0.0 | 0.00 | 0.00 | 0.00 | 41 | 1010.0 |
| 20260506000545 | 25 | 161 | 3.2 | 0.0 | 0.00 | 0.00 | 0.00 | 40 | 1010.0 |
| 20260506000441 | 25 | 116 | 3.2 | 0.0 | 0.00 | 0.00 | 0.00 | 40 | 1010.0 |
| 20260506000346 | 25 | 172 | 4.8 | 0.0 | 0.00 | 0.00 | 0.00 | 40 | 1010.0 |
| 20260506000243 | 25 | 167 | 4.8 | 0.0 | 0.00 | 0.00 | 0.00 | 40 | 1010.0 |
| 20260506000143 | 25 | 149 | 4.8 | 0.0 | 0.00 | 0.00 | 0.00 | 40 | 1010.0 |
| 20260506000027 | 25 | 170 | 6.4 | 0.0 | 0.00 | 0.00 | 0.00 | 40 | 1010.0 |
| 20260505235947 | 25 | 199 | 6.4 | 0.0 | 0.00 | 0.00 | 0.00 | 40 | 1010.0 |
| 20260505235829 | 25 | 134 | 6.4 | 0.0 | 0.00 | 0.00 | 0.00 | 40 | 1010.0 |
| 20260505235750 | 25 | 233 | 6.4 | 0.0 | 0.00 | 0.00 | 0.00 | 40 | 1010.0 |
| 20260505235631 | 26 | 180 | 6.4 | 0.0 | 0.00 | 0.00 | 0.00 | 40 | 1010.0 |
| 20260505235531 | 26 | 169 | 8.0 | 0.0 | 0.00 | 0.00 | 0.00 | 40 | 1010.0 |
| 20260505235429 | 26 | 178 | 8.0 | 0.0 | 0.00 | 0.00 | 0.00 | 40 | 1010.0 |
| 20260505235335 | 26 | 155 | 8.0 | 0.0 | 0.00 | 0.00 | 0.00 | 40 | 1010.0 |
| 20260505235236 | 26 | 172 | 9.7 | 0.0 | 0.00 | 0.00 | 0.00 | 40 | 1010.0 |
| 20260505235159 | 26 | 169 | 8.0 | 0.0 | 0.00 | 0.00 | 0.00 | 40 | 1010.0 |
| 20260505235037 | 26 | 178 | 8.0 | 0.0 | 0.00 | 0.00 | 0.00 | 40 | 1010.0 |
| 20260505234939 | 26 | 154 | 9.7 | 0.0 | 0.00 | 0.00 | 0.00 | 40 | 1010.0 |
| 20260505234855 | 26 | 163 | 9.7 | 0.0 | 0.00 | 0.00 | 0.00 | 40 | 1010.0 |
| 20260505234737 | 26 | 195 | 9.7 | 0.0 | 0.00 | 0.00 | 0.00 | 40 | 1010.0 |
| 20260505234659 | 26 | 169 | 9.7 | 0.0 | 0.00 | 0.00 | 0.00 | 39 | 1010.0 |
| 20260505234544 | 26 | 202 | 9.7 | 0.0 | 0.00 | 0.00 | 0.00 | 39 | 1010.0 |
| 20260505234443 | 26 | 198 | 9.7 | 0.0 | 0.00 | 0.00 | 0.00 | 39 | 1010.0 |
| 20260505234345 | 26 | 180 | 9.7 | 0.0 | 0.00 | 0.00 | 0.00 | 39 | 1009.9 |
| 20260505234243 | 26 | 236 | 9.7 | 0.0 | 0.00 | 0.00 | 0.00 | 39 | 1009.9 |
| 20260505234145 | 26 | 178 | 9.7 | 0.0 | 0.00 | 0.00 | 0.00 | 39 | 1009.9 |
| 20260505234042 | 26 | 178 | 9.7 | 0.0 | 0.00 | 0.00 | 0.00 | 39 | 1009.9 |
| 20260505233926 | 26 | 219 | 9.7 | 0.0 | 0.00 | 0.00 | 0.00 | 39 | 1009.9 |
| 20260505233827 | 26 | 172 | 9.7 | 0.0 | 0.00 | 0.00 | 0.00 | 39 | 1009.9 |
| 20260505233730 | 26 | 191 | 9.7 | 0.0 | 0.00 | 0.00 | 0.00 | 39 | 1009.9 |
| 20260505233627 | 26 | 180 | 9.7 | 0.0 | 0.00 | 0.00 | 0.00 | 39 | 1009.9 |
| 20260505233533 | 26 | 195 | 9.7 | 0.0 | 0.00 | 0.00 | 0.00 | 39 | 1009.9 |
| 20260505233430 | 26 | 178 | 9.7 | 0.0 | 0.00 | 0.00 | 0.00 | 39 | 1009.9 |
| 20260505233332 | 26 | 233 | 8.0 | 0.0 | 0.00 | 0.00 | 0.00 | 39 | 1009.9 |
| 20260505233233 | 26 | 209 | 8.0 | 0.0 | 0.00 | 0.00 | 0.00 | 39 | 1009.9 |
| 20260505233134 | 26 | 285 | 8.0 | 0.0 | 0.00 | 0.00 | 0.00 | 39 | 1009.9 |
| 20260505233033 | 26 | 170 | 8.0 | 0.0 | 0.00 | 0.00 | 0.00 | 39 | 1009.9 |
| 20260505232932 | 26 | 174 | 8.0 | 0.0 | 0.00 | 0.00 | 0.00 | 39 | 1009.9 |
| 20260505232829 | 26 | 188 | 8.0 | 0.0 | 0.00 | 0.00 | 0.00 | 39 | 1009.6 |
| 20260505232731 | 26 | 242 | 8.0 | 0.0 | 0.00 | 0.00 | 0.00 | 39 | 1009.6 |
| 20260505232649 | 26 | 159 | 6.4 | 0.0 | 0.00 | 0.00 | 0.00 | 39 | 1009.6 |
| 20260505232538 | 26 | 172 | 8.0 | 0.0 | 0.00 | 0.00 | 0.00 | 39 | 1009.6 |
| 20260505232434 | 26 | 193 | 8.0 | 0.0 | 0.00 | 0.00 | 0.00 | 38 | 1009.6 |
| 20260505232335 | 26 | 170 | 8.0 | 0.0 | 0.00 | 0.00 | 0.00 | 38 | 1009.6 |
| 20260505232257 | 26 | 257 | 8.0 | 0.0 | 0.00 | 0.00 | 0.00 | 38 | 1009.6 |
| 20260505232137 | 26 | 178 | 8.0 | 0.0 | 0.00 | 0.00 | 0.00 | 38 | 1009.6 |
| 20260505232034 | 26 | 196 | 8.0 | 0.0 | 0.00 | 0.00 | 0.00 | 38 | 1009.6 |
| 20260505231954 | 26 | 184 | 6.4 | 0.0 | 0.00 | 0.00 | 0.00 | 38 | 1009.6 |
| 20260505231836 | 26 | 181 | 6.4 | 0.0 | 0.00 | 0.00 | 0.00 | 38 | 1009.6 |
| 20260505231736 | 26 | 205 | 6.4 | 0.0 | 0.00 | 0.00 | 0.00 | 38 | 1009.6 |
| 20260505231635 | 26 | 190 | 8.0 | 0.0 | 0.00 | 0.00 | 0.00 | 38 | 1009.6 |
| 20260505231539 | 26 | 150 | 6.4 | 0.0 | 0.00 | 0.00 | 0.00 | 38 | 1009.6 |
| 20260505231436 | 26 | 172 | 6.4 | 0.0 | 0.00 | 0.00 | 0.00 | 38 | 1009.6 |
| 20260505231339 | 26 | 182 | 8.0 | 0.0 | 0.00 | 0.00 | 0.00 | 38 | 1009.5 |
| 20260505231236 | 27 | 188 | 9.7 | 0.0 | 0.00 | 0.00 | 0.00 | 38 | 1009.5 |
| 20260505231142 | 27 | 186 | 8.0 | 0.0 | 0.00 | 0.00 | 0.00 | 37 | 1009.5 |
| 20260505231039 | 27 | 181 | 8.0 | 0.0 | 0.00 | 0.00 | 0.00 | 37 | 1009.5 |
| 20260505230939 | 27 | 117 | 8.0 | 0.0 | 0.00 | 0.00 | 0.00 | 37 | 1009.5 |
| 20260505230839 | 27 | 187 | 8.0 | 0.0 | 0.00 | 0.00 | 0.00 | 37 | 1009.5 |
| 20260505230741 | 27 | 163 | 8.0 | 0.0 | 0.00 | 0.00 | 0.00 | 37 | 1009.5 |
| 20260505230639 | 27 | 214 | 8.0 | 0.0 | 0.00 | 0.00 | 0.00 | 37 | 1009.5 |
| 20260505230547 | 27 | 176 | 8.0 | 0.0 | 0.00 | 0.00 | 0.00 | 36 | 1009.5 |
| 20260505230423 | 27 | 186 | 8.0 | 0.0 | 0.00 | 0.00 | 0.00 | 36 | 1009.5 |
| 20260505230348 | 27 | 205 | 8.0 | 0.0 | 0.00 | 0.00 | 0.00 | 36 | 1009.5 |
| 20260505230249 | 27 | 208 | 8.0 | 0.0 | 0.00 | 0.00 | 0.00 | 36 | 1009.5 |
| 20260505230129 | 27 | 197 | 8.0 | 0.0 | 0.00 | 0.00 | 0.00 | 35 | 1009.5 |
| 20260505230028 | 27 | 166 | 9.7 | 0.0 | 0.00 | 0.00 | 0.00 | 35 | 1009.5 |
| 20260505225928 | 27 | 195 | 9.7 | 0.0 | 0.00 | 0.00 | 0.00 | 35 | 1009.5 |
| 20260505225830 | 27 | 180 | 9.7 | 0.0 | 0.00 | 0.00 | 0.00 | 35 | 1009.4 |
| 20260505225732 | 27 | 201 | 9.7 | 0.0 | 0.00 | 0.00 | 0.00 | 35 | 1009.4 |
| 20260505225633 | 27 | 194 | 9.7 | 0.0 | 0.00 | 0.00 | 0.00 | 35 | 1009.4 |
| 20260505225557 | 27 | 222 | 8.0 | 0.0 | 0.00 | 0.00 | 0.00 | 34 | 1009.4 |
| 20260505225435 | 27 | 153 | 9.7 | 0.0 | 0.00 | 0.00 | 0.00 | 34 | 1009.4 |
| 20260505225336 | 27 | 186 | 8.0 | 0.0 | 0.00 | 0.00 | 0.00 | 34 | 1009.4 |
| 20260505225254 | 27 | 276 | 6.4 | 0.0 | 0.00 | 0.00 | 0.00 | 34 | 1009.4 |
| 20260505225134 | 27 | 263 | 8.0 | 0.0 | 0.00 | 0.00 | 0.00 | 34 | 1009.4 |
| 20260505225036 | 27 | 241 | 8.0 | 0.0 | 0.00 | 0.00 | 0.00 | 33 | 1009.4 |
| 20260505224941 | 27 | 203 | 6.4 | 0.0 | 0.00 | 0.00 | 0.00 | 33 | 1009.4 |
| 20260505224838 | 27 | 201 | 8.0 | 0.0 | 0.00 | 0.00 | 0.00 | 33 | 1009.4 |
| 20260505224739 | 27 | 201 | 8.0 | 0.0 | 0.00 | 0.00 | 0.00 | 33 | 1009.4 |
| 20260505224638 | 27 | 217 | 9.7 | 0.0 | 0.00 | 0.00 | 0.00 | 33 | 1009.4 |
| 20260505224543 | 27 | 176 | 9.7 | 0.0 | 0.00 | 0.00 | 0.00 | 33 | 1009.4 |
| 20260505224424 | 27 | 188 | 9.7 | 0.0 | 0.00 | 0.00 | 0.00 | 33 | 1009.4 |
| 20260505224330 | 27 | 160 | 9.7 | 0.0 | 0.00 | 0.00 | 0.00 | 33 | 1009.3 |
| 20260505224228 | 27 | 167 | 9.7 | 0.0 | 0.00 | 0.00 | 0.00 | 32 | 1009.3 |
| 20260505224130 | 27 | 182 | 11.3 | 0.0 | 0.00 | 0.00 | 0.00 | 32 | 1009.3 |
| 20260505224028 | 27 | 211 | 11.3 | 0.0 | 0.00 | 0.00 | 0.00 | 32 | 1009.3 |
| 20260505223949 | 27 | 173 | 11.3 | 0.0 | 0.00 | 0.00 | 0.00 | 32 | 1009.3 |
| 20260505223828 | 27 | 182 | 11.3 | 0.0 | 0.00 | 0.00 | 0.00 | 32 | 1009.3 |
| 20260505223730 | 27 | 197 | 9.7 | 0.0 | 0.00 | 0.00 | 0.00 | 32 | 1009.3 |
| 20260505223633 | 27 | 215 | 9.7 | 0.0 | 0.00 | 0.00 | 0.00 | 32 | 1009.3 |
| 20260505223533 | 27 | 207 | 9.7 | 0.0 | 0.00 | 0.00 | 0.00 | 31 | 1009.3 |
| 20260505223435 | 27 | 190 | 11.3 | 0.0 | 0.00 | 0.00 | 0.00 | 31 | 1009.3 |
| 20260505223339 | 27 | 192 | 11.3 | 0.0 | 0.00 | 0.00 | 0.00 | 31 | 1009.3 |
| 20260505223240 | 27 | 281 | 9.7 | 0.0 | 0.00 | 0.00 | 0.00 | 31 | 1009.3 |
| 20260505223203 | 27 | 138 | 9.7 | 0.0 | 0.00 | 0.00 | 0.00 | 31 | 1009.3 |
| 20260505223104 | 27 | 228 | 9.7 | 0.0 | 0.00 | 0.00 | 0.00 | 31 | 1009.3 |
| 20260505222929 | 27 | 182 | 9.7 | 0.0 | 0.00 | 0.00 | 0.00 | 31 | 1009.3 |
| 20260505222846 | 27 | 175 | 11.3 | 0.0 | 0.00 | 0.00 | 0.00 | 31 | 1009.3 |
| 20260505222747 | 27 | 54 | 11.3 | 0.0 | 0.00 | 0.00 | 0.00 | 31 | 1009.3 |
| 20260505222624 | 27 | 126 | 12.9 | 0.0 | 0.00 | 0.00 | 0.00 | 30 | 1009.3 |
| 20260505222548 | 27 | 180 | 12.9 | 0.0 | 0.00 | 0.00 | 0.00 | 30 | 1009.3 |
| 20260505222425 | 27 | 177 | 12.9 | 0.0 | 0.00 | 0.00 | 0.00 | 31 | 1009.3 |
| 20260505222327 | 27 | 198 | 12.9 | 0.0 | 0.00 | 0.00 | 0.00 | 31 | 1009.3 |
| 20260505222231 | 27 | 162 | 14.5 | 0.0 | 0.00 | 0.00 | 0.00 | 30 | 1009.3 |
| 20260505222131 | 27 | 248 | 12.9 | 0.0 | 0.00 | 0.00 | 0.00 | 31 | 1009.3 |
| 20260505222029 | 27 | 217 | 12.9 | 0.0 | 0.00 | 0.00 | 0.00 | 30 | 1009.3 |
| 20260505221929 | 27 | 155 | 12.9 | 0.0 | 0.00 | 0.00 | 0.00 | 30 | 1009.3 |
| 20260505221847 | 27 | 190 | 12.9 | 0.0 | 0.00 | 0.00 | 0.00 | 31 | 1009.3 |
| 20260505221728 | 27 | 190 | 11.3 | 0.0 | 0.00 | 0.00 | 0.00 | 30 | 1009.3 |
| 20260505221626 | 27 | 192 | 9.7 | 0.0 | 0.00 | 0.00 | 0.00 | 31 | 1009.3 |
| 20260505221534 | 27 | 197 | 8.0 | 0.0 | 0.00 | 0.00 | 0.00 | 30 | 1009.3 |
| 20260505221433 | 27 | 189 | 8.0 | 0.0 | 0.00 | 0.00 | 0.00 | 31 | 1009.3 |
| 20260505221333 | 27 | 266 | 8.0 | 0.0 | 0.00 | 0.00 | 0.00 | 31 | 1009.2 |
| 20260505221234 | 27 | 163 | 6.4 | 0.0 | 0.00 | 0.00 | 0.00 | 30 | 1009.2 |
| 20260505221155 | 27 | 117 | 8.0 | 0.0 | 0.00 | 0.00 | 0.00 | 30 | 1009.2 |
| 20260505221032 | 27 | 211 | 8.0 | 0.0 | 0.00 | 0.00 | 0.00 | 30 | 1009.2 |
| 20260505220937 | 27 | 171 | 9.7 | 0.0 | 0.00 | 0.00 | 0.00 | 30 | 1009.2 |
| 20260505220842 | 27 | 236 | 9.7 | 0.0 | 0.00 | 0.00 | 0.00 | 30 | 1009.2 |
| 20260505220803 | 27 | 186 | 9.7 | 0.0 | 0.00 | 0.00 | 0.00 | 30 | 1009.2 |
| 20260505220643 | 27 | 168 | 11.3 | 0.0 | 0.00 | 0.00 | 0.00 | 30 | 1009.2 |
| 20260505220556 | 28 | 198 | 11.3 | 0.0 | 0.00 | 0.00 | 0.00 | 30 | 1009.2 |
| 20260505220439 | 28 | 168 | 11.3 | 0.0 | 0.00 | 0.00 | 0.00 | 29 | 1009.2 |
| 20260505220359 | 28 | 202 | 12.9 | 0.0 | 0.00 | 0.00 | 0.00 | 29 | 1009.2 |
| 20260505220237 | 28 | 219 | 12.9 | 0.0 | 0.00 | 0.00 | 0.00 | 29 | 1009.2 |
| 20260505220143 | 28 | 185 | 12.9 | 0.0 | 0.00 | 0.00 | 0.00 | 29 | 1009.2 |
| 20260505220042 | 28 | 168 | 12.9 | 0.0 | 0.00 | 0.00 | 0.00 | 29 | 1009.2 |
| 20260505215942 | 28 | 197 | 12.9 | 0.0 | 0.00 | 0.00 | 0.00 | 29 | 1009.2 |
| 20260505215840 | 28 | 138 | 14.5 | 0.0 | 0.00 | 0.00 | 0.00 | 29 | 1009.1 |
| 20260505215741 | 28 | 183 | 16.1 | 0.0 | 0.00 | 0.00 | 0.00 | 29 | 1009.1 |
| 20260505215639 | 28 | 201 | 14.5 | 0.0 | 0.00 | 0.00 | 0.00 | 28 | 1009.1 |
| 20260505215541 | 28 | 163 | 16.1 | 0.0 | 0.00 | 0.00 | 0.00 | 28 | 1009.1 |
| 20260505215424 | 28 | 113 | 16.1 | 0.0 | 0.00 | 0.00 | 0.00 | 28 | 1009.1 |
| 20260505215346 | 28 | 211 | 16.1 | 0.0 | 0.00 | 0.00 | 0.00 | 28 | 1009.1 |
| 20260505215224 | 28 | 211 | 16.1 | 0.0 | 0.00 | 0.00 | 0.00 | 28 | 1009.1 |
| 20260505215125 | 28 | 172 | 17.7 | 0.0 | 0.00 | 0.00 | 0.00 | 28 | 1009.1 |
| 20260505215048 | 28 | 236 | 16.1 | 0.0 | 0.00 | 0.00 | 0.00 | 28 | 1009.1 |
| 20260505215007 | 28 | 195 | 17.7 | 0.0 | 0.00 | 0.00 | 0.00 | 28 | 1009.1 |
| 20260505214827 | 28 | 182 | 17.7 | 0.0 | 0.00 | 0.00 | 0.00 | 28 | 1009.1 |
| 20260505214728 | 28 | 180 | 16.1 | 0.0 | 0.00 | 0.00 | 0.00 | 28 | 1009.1 |
| 20260505214626 | 28 | 218 | 17.7 | 0.0 | 0.00 | 0.00 | 0.00 | 28 | 1009.1 |
| 20260505214528 | 28 | 215 | 16.1 | 0.0 | 0.00 | 0.00 | 0.00 | 28 | 1009.1 |
| 20260505214428 | 28 | 200 | 16.1 | 0.0 | 0.00 | 0.00 | 0.00 | 27 | 1009.1 |
| 20260505214329 | 28 | 257 | 17.7 | 0.0 | 0.00 | 0.00 | 0.00 | 27 | 1009.1 |
| 20260505214247 | 28 | 178 | 17.7 | 0.0 | 0.00 | 0.00 | 0.00 | 27 | 1009.1 |
| 20260505214131 | 28 | 345 | 17.7 | 0.0 | 0.00 | 0.00 | 0.00 | 27 | 1009.1 |
| 20260505214050 | 28 | 194 | 16.1 | 0.0 | 0.00 | 0.00 | 0.00 | 28 | 1009.1 |
| 20260505213933 | 28 | 198 | 14.5 | 0.0 | 0.00 | 0.00 | 0.00 | 28 | 1009.1 |
| 20260505213831 | 28 | 186 | 14.5 | 0.0 | 0.00 | 0.00 | 0.00 | 28 | 1009.1 |
| 20260505213735 | 28 | 217 | 14.5 | 0.0 | 0.00 | 0.00 | 0.00 | 27 | 1009.1 |
| 20260505213635 | 28 | 186 | 12.9 | 0.0 | 0.00 | 0.00 | 0.00 | 27 | 1009.1 |
| 20260505213558 | 28 | 206 | 11.3 | 0.0 | 0.00 | 0.00 | 0.00 | 27 | 1009.1 |
| 20260505213437 | 28 | 196 | 11.3 | 0.0 | 0.00 | 0.00 | 0.00 | 27 | 1009.1 |
| 20260505213342 | 28 | 251 | 11.3 | 0.0 | 0.00 | 0.00 | 0.00 | 27 | 1009.1 |
| 20260505213243 | 28 | 186 | 11.3 | 0.0 | 0.00 | 0.00 | 0.00 | 27 | 1009.1 |
| 20260505213125 | 28 | 186 | 11.3 | 0.0 | 0.00 | 0.00 | 0.00 | 27 | 1009.1 |
| 20260505213026 | 28 | 177 | 12.9 | 0.0 | 0.00 | 0.00 | 0.00 | 27 | 1009.1 |
| 20260505212946 | 28 | 212 | 12.9 | 0.0 | 0.00 | 0.00 | 0.00 | 27 | 1009.1 |
| 20260505212844 | 28 | 215 | 12.9 | 0.0 | 0.00 | 0.00 | 0.00 | 27 | 1009.0 |
| 20260505212730 | 28 | 178 | 12.9 | 0.0 | 0.00 | 0.00 | 0.00 | 28 | 1009.0 |
| 20260505212649 | 28 | 206 | 14.5 | 0.0 | 0.00 | 0.00 | 0.00 | 27 | 1009.0 |
| 20260505212530 | 28 | 177 | 16.1 | 0.0 | 0.00 | 0.00 | 0.00 | 27 | 1009.0 |
| 20260505212447 | 28 | 229 | 16.1 | 0.0 | 0.00 | 0.00 | 0.00 | 27 | 1009.0 |
| 20260505212328 | 28 | 194 | 17.7 | 0.0 | 0.00 | 0.00 | 0.00 | 26 | 1009.0 |
| 20260505212226 | 28 | 253 | 17.7 | 0.0 | 0.00 | 0.00 | 0.00 | 26 | 1009.0 |
| 20260505212127 | 28 | 234 | 17.7 | 0.0 | 0.00 | 0.00 | 0.00 | 27 | 1009.0 |
| 20260505212034 | 28 | 205 | 17.7 | 0.0 | 0.00 | 0.00 | 0.00 | 26 | 1009.0 |
| 20260505211936 | 28 | 70 | 17.7 | 0.0 | 0.00 | 0.00 | 0.00 | 26 | 1009.0 |
| 20260505211859 | 28 | 170 | 17.7 | 0.0 | 0.00 | 0.00 | 0.00 | 26 | 1009.0 |
| 20260505211739 | 28 | 222 | 16.1 | 0.0 | 0.00 | 0.00 | 0.00 | 26 | 1009.0 |
| 20260505211636 | 28 | 266 | 17.7 | 0.0 | 0.00 | 0.00 | 0.00 | 26 | 1009.0 |
| 20260505211539 | 28 | 232 | 17.7 | 0.0 | 0.00 | 0.00 | 0.00 | 27 | 1009.0 |
| 20260505211503 | 28 | 188 | 17.7 | 0.0 | 0.00 | 0.00 | 0.00 | 27 | 1009.0 |
| 20260505211404 | 28 | 226 | 16.1 | 0.0 | 0.00 | 0.00 | 0.00 | 27 | 1008.7 |
| 20260505211229 | 28 | 161 | 16.1 | 0.0 | 0.00 | 0.00 | 0.00 | 27 | 1008.7 |
| 20260505211130 | 28 | 215 | 16.1 | 0.0 | 0.00 | 0.00 | 0.00 | 27 | 1008.7 |
| 20260505211032 | 28 | 239 | 16.1 | 0.0 | 0.00 | 0.00 | 0.00 | 27 | 1008.7 |
| 20260505210933 | 28 | 253 | 14.5 | 0.0 | 0.00 | 0.00 | 0.00 | 27 | 1008.7 |
| 20260505210834 | 28 | 153 | 12.9 | 0.0 | 0.00 | 0.00 | 0.00 | 27 | 1008.7 |
| 20260505210734 | 28 | 184 | 12.9 | 0.0 | 0.00 | 0.00 | 0.00 | 26 | 1008.7 |
| 20260505210653 | 28 | 317 | 11.3 | 0.0 | 0.00 | 0.00 | 0.00 | 27 | 1008.7 |
| 20260505210538 | 28 | 126 | 11.3 | 0.0 | 0.00 | 0.00 | 0.00 | 27 | 1008.7 |
| 20260505210455 | 28 | 197 | 12.9 | 0.0 | 0.00 | 0.00 | 0.00 | 27 | 1008.7 |
| 20260505210354 | 28 | 221 | 12.9 | 0.0 | 0.00 | 0.00 | 0.00 | 27 | 1008.7 |
| 20260505210252 | 28 | 176 | 12.9 | 0.0 | 0.00 | 0.00 | 0.00 | 27 | 1008.7 |
| 20260505210131 | 28 | 213 | 14.5 | 0.0 | 0.00 | 0.00 | 0.00 | 28 | 1008.7 |
| 20260505210050 | 28 | 219 | 14.5 | 0.0 | 0.00 | 0.00 | 0.00 | 28 | 1008.7 |
| 20260505205931 | 28 | 240 | 16.1 | 0.0 | 0.00 | 0.00 | 0.00 | 27 | 1008.7 |
| 20260505205828 | 28 | 95 | 16.1 | 0.0 | 0.00 | 0.00 | 0.00 | 27 | 1008.7 |
| 20260505205734 | 28 | 199 | 17.7 | 0.0 | 0.00 | 0.00 | 0.00 | 27 | 1008.7 |
| 20260505205632 | 28 | 255 | 17.7 | 0.0 | 0.00 | 0.00 | 0.00 | 26 | 1008.7 |
| 20260505205534 | 28 | 190 | 16.1 | 0.0 | 0.00 | 0.00 | 0.00 | 26 | 1008.7 |
| 20260505205434 | 28 | 215 | 16.1 | 0.0 | 0.00 | 0.00 | 0.00 | 28 | 1008.7 |
| 20260505205355 | 28 | 220 | 14.5 | 0.0 | 0.00 | 0.00 | 0.00 | 28 | 1008.7 |
| 20260505205253 | 28 | 201 | 14.5 | 0.0 | 0.00 | 0.00 | 0.00 | 29 | 1008.7 |
| 20260505205133 | 28 | 167 | 12.9 | 0.0 | 0.00 | 0.00 | 0.00 | 29 | 1008.7 |
| 20260505205052 | 28 | 191 | 11.3 | 0.0 | 0.00 | 0.00 | 0.00 | 31 | 1008.7 |
| 20260505204936 | 28 | 103 | 12.9 | 0.0 | 0.00 | 0.00 | 0.00 | 32 | 1008.7 |
| 20260505204833 | 28 | 192 | 12.9 | 0.0 | 0.00 | 0.00 | 0.00 | 32 | 1008.7 |
| 20260505204755 | 28 | 182 | 11.3 | 0.0 | 0.00 | 0.00 | 0.00 | 32 | 1008.7 |
| 20260505204651 | 28 | 195 | 11.3 | 0.0 | 0.00 | 0.00 | 0.00 | 32 | 1008.7 |
| 20260505204532 | 28 | 90 | 11.3 | 0.0 | 0.00 | 0.00 | 0.00 | 31 | 1008.7 |
| 20260505204430 | 28 | 188 | 9.7 | 0.0 | 0.00 | 0.00 | 0.00 | 32 | 1008.7 |
| 20260505204351 | 28 | 187 | 9.7 | 0.0 | 0.00 | 0.00 | 0.00 | 32 | 1008.9 |
| 20260505204229 | 28 | 205 | 9.7 | 0.0 | 0.00 | 0.00 | 0.00 | 32 | 1008.9 |
| 20260505204151 | 28 | 132 | 9.7 | 0.0 | 0.00 | 0.00 | 0.00 | 32 | 1008.9 |
| 20260505204059 | 28 | 187 | 11.3 | 0.0 | 0.00 | 0.00 | 0.00 | 31 | 1008.9 |
| 20260505203937 | 28 | 210 | 11.3 | 0.0 | 0.00 | 0.00 | 0.00 | 31 | 1008.9 |
| 20260505203839 | 28 | 246 | 11.3 | 0.0 | 0.00 | 0.00 | 0.00 | 31 | 1008.9 |
| 20260505203740 | 28 | 277 | 11.3 | 0.0 | 0.00 | 0.00 | 0.00 | 30 | 1008.9 |
| 20260505203639 | 28 | 222 | 11.3 | 0.0 | 0.00 | 0.00 | 0.00 | 31 | 1008.9 |
| 20260505203544 | 28 | 182 | 12.9 | 0.0 | 0.00 | 0.00 | 0.00 | 31 | 1008.9 |
| 20260505203425 | 28 | 170 | 12.9 | 0.0 | 0.00 | 0.00 | 0.00 | 31 | 1008.9 |
| 20260505203326 | 28 | 276 | 12.9 | 0.0 | 0.00 | 0.00 | 0.00 | 32 | 1008.9 |
| 20260505203227 | 28 | 249 | 12.9 | 0.0 | 0.00 | 0.00 | 0.00 | 31 | 1008.9 |
| 20260505203128 | 28 | 158 | 12.9 | 0.0 | 0.00 | 0.00 | 0.00 | 31 | 1008.9 |
| 20260505203030 | 28 | 176 | 11.3 | 0.0 | 0.00 | 0.00 | 0.00 | 32 | 1008.9 |
| 20260505202950 | 28 | 167 | 12.9 | 0.0 | 0.00 | 0.00 | 0.00 | 32 | 1008.9 |
| 20260505202829 | 28 | 210 | 12.9 | 0.0 | 0.00 | 0.00 | 0.00 | 32 | 1009.0 |
| 20260505202734 | 28 | 217 | 12.9 | 0.0 | 0.00 | 0.00 | 0.00 | 32 | 1009.0 |
| 20260505202637 | 28 | 180 | 12.9 | 0.0 | 0.00 | 0.00 | 0.00 | 32 | 1009.0 |
| 20260505202539 | 28 | 191 | 12.9 | 0.0 | 0.00 | 0.00 | 0.00 | 32 | 1009.0 |
| 20260505202455 | 28 | 178 | 14.5 | 0.0 | 0.00 | 0.00 | 0.00 | 32 | 1009.0 |
| 20260505202336 | 28 | 189 | 14.5 | 0.0 | 0.00 | 0.00 | 0.00 | 32 | 1009.0 |
| 20260505202235 | 28 | 251 | 12.9 | 0.0 | 0.00 | 0.00 | 0.00 | 32 | 1009.0 |
| 20260505202137 | 28 | 274 | 14.5 | 0.0 | 0.00 | 0.00 | 0.00 | 32 | 1009.0 |
| 20260505202040 | 28 | 249 | 14.5 | 0.0 | 0.00 | 0.00 | 0.00 | 32 | 1009.0 |
| 20260505201941 | 28 | 197 | 14.5 | 0.0 | 0.00 | 0.00 | 0.00 | 32 | 1009.0 |
| 20260505201838 | 28 | 284 | 12.9 | 0.0 | 0.00 | 0.00 | 0.00 | 31 | 1009.0 |
| 20260505201739 | 28 | 187 | 11.3 | 0.0 | 0.00 | 0.00 | 0.00 | 31 | 1009.0 |
| 20260505201639 | 28 | 235 | 11.3 | 0.0 | 0.00 | 0.00 | 0.00 | 31 | 1009.0 |
| 20260505201541 | 28 | 194 | 9.7 | 0.0 | 0.00 | 0.00 | 0.00 | 32 | 1009.0 |
| 20260505201442 | 28 | 243 | 9.7 | 0.0 | 0.00 | 0.00 | 0.00 | 33 | 1009.0 |
| 20260505201407 | 28 | 232 | 9.7 | 0.0 | 0.00 | 0.00 | 0.00 | 33 | 1008.9 |
| 20260505201245 | 28 | 175 | 9.7 | 0.0 | 0.00 | 0.00 | 0.00 | 33 | 1008.9 |
| 20260505201126 | 28 | 216 | 9.7 | 0.0 | 0.00 | 0.00 | 0.00 | 33 | 1008.9 |
| 20260505201047 | 28 | 187 | 9.7 | 0.0 | 0.00 | 0.00 | 0.00 | 34 | 1008.9 |
| 20260505200926 | 28 | 199 | 9.7 | 0.0 | 0.00 | 0.00 | 0.00 | 34 | 1008.9 |
| 20260505200826 | 28 | 164 | 9.7 | 0.0 | 0.00 | 0.00 | 0.00 | 33 | 1008.9 |
| 20260505200729 | 28 | 199 | 9.7 | 0.0 | 0.00 | 0.00 | 0.00 | 34 | 1008.9 |
| 20260505200630 | 28 | 182 | 9.7 | 0.0 | 0.00 | 0.00 | 0.00 | 34 | 1008.9 |
| 20260505200532 | 28 | 219 | 11.3 | 0.0 | 0.00 | 0.00 | 0.00 | 34 | 1008.9 |
| 20260505200449 | 28 | 138 | 12.9 | 0.0 | 0.00 | 0.00 | 0.00 | 34 | 1008.9 |
| 20260505200330 | 28 | 169 | 12.9 | 0.0 | 0.00 | 0.00 | 0.00 | 34 | 1008.9 |
| 20260505200231 | 28 | 247 | 12.9 | 0.0 | 0.00 | 0.00 | 0.00 | 34 | 1008.9 |
| 20260505200132 | 28 | 195 | 12.9 | 0.0 | 0.00 | 0.00 | 0.00 | 34 | 1008.9 |
| 20260505200035 | 28 | 145 | 12.9 | 0.0 | 0.00 | 0.00 | 0.00 | 34 | 1008.9 |
| 20260505195938 | 28 | 217 | 12.9 | 0.0 | 0.00 | 0.00 | 0.00 | 34 | 1008.9 |
| 20260505195838 | 28 | 212 | 12.9 | 0.0 | 0.00 | 0.00 | 0.00 | 33 | 1009.1 |
| 20260505195740 | 28 | 276 | 12.9 | 0.0 | 0.00 | 0.00 | 0.00 | 33 | 1009.1 |
| 20260505195638 | 28 | 236 | 12.9 | 0.0 | 0.00 | 0.00 | 0.00 | 33 | 1009.1 |
| 20260505195539 | 28 | 198 | 12.9 | 0.0 | 0.00 | 0.00 | 0.00 | 33 | 1009.1 |
| 20260505195436 | 28 | 173 | 12.9 | 0.0 | 0.00 | 0.00 | 0.00 | 33 | 1009.1 |
| 20260505195321 | 28 | 232 | 12.9 | 0.0 | 0.00 | 0.00 | 0.00 | 33 | 1009.1 |
| 20260505195225 | 28 | 209 | 11.3 | 0.0 | 0.00 | 0.00 | 0.00 | 32 | 1009.1 |
| 20260505195126 | 28 | 215 | 11.3 | 0.0 | 0.00 | 0.00 | 0.00 | 32 | 1009.1 |
| 20260505195028 | 28 | 219 | 11.3 | 0.0 | 0.00 | 0.00 | 0.00 | 32 | 1009.1 |
| 20260505194929 | 28 | 230 | 12.9 | 0.0 | 0.00 | 0.00 | 0.00 | 32 | 1009.1 |
| 20260505194849 | 28 | 135 | 12.9 | 0.0 | 0.00 | 0.00 | 0.00 | 32 | 1009.1 |
| 20260505194752 | 28 | 317 | 12.9 | 0.0 | 0.00 | 0.00 | 0.00 | 31 | 1009.1 |
| 20260505194649 | 28 | 177 | 14.5 | 0.0 | 0.00 | 0.00 | 0.00 | 31 | 1009.1 |
| 20260505194535 | 28 | 279 | 12.9 | 0.0 | 0.00 | 0.00 | 0.00 | 31 | 1009.1 |
| 20260505194456 | 28 | 218 | 11.3 | 0.0 | 0.00 | 0.00 | 0.00 | 30 | 1009.1 |
| 20260505194337 | 28 | 184 | 12.9 | 0.0 | 0.00 | 0.00 | 0.00 | 31 | 1009.3 |
| 20260505194259 | 28 | 140 | 12.9 | 0.0 | 0.00 | 0.00 | 0.00 | 31 | 1009.3 |
| 20260505194140 | 28 | 240 | 12.9 | 0.0 | 0.00 | 0.00 | 0.00 | 31 | 1009.3 |
| 20260505194102 | 28 | 238 | 11.3 | 0.0 | 0.00 | 0.00 | 0.00 | 31 | 1009.3 |
| 20260505193941 | 28 | 222 | 11.3 | 0.0 | 0.00 | 0.00 | 0.00 | 31 | 1009.3 |
| 20260505193839 | 28 | 182 | 11.3 | 0.0 | 0.00 | 0.00 | 0.00 | 30 | 1009.3 |
| 20260505193728 | 28 | 230 | 9.7 | 0.0 | 0.00 | 0.00 | 0.00 | 30 | 1009.3 |
| 20260505193630 | 28 | 198 | 9.7 | 0.0 | 0.00 | 0.00 | 0.00 | 33 | 1009.3 |
| 20260505193536 | 28 | 187 | 9.7 | 0.0 | 0.00 | 0.00 | 0.00 | 33 | 1009.3 |
| 20260505193432 | 28 | 221 | 11.3 | 0.0 | 0.00 | 0.00 | 0.00 | 33 | 1009.3 |
| 20260505193334 | 28 | 209 | 11.3 | 0.0 | 0.00 | 0.00 | 0.00 | 34 | 1009.3 |
| 20260505193233 | 28 | 227 | 12.9 | 0.0 | 0.00 | 0.00 | 0.00 | 33 | 1009.3 |
| 20260505193154 | 28 | 183 | 11.3 | 0.0 | 0.00 | 0.00 | 0.00 | 33 | 1009.3 |
| 20260505193036 | 28 | 274 | 12.9 | 0.0 | 0.00 | 0.00 | 0.00 | 34 | 1009.3 |
| 20260505192936 | 28 | 191 | 12.9 | 0.0 | 0.00 | 0.00 | 0.00 | 33 | 1009.3 |